Time,TemperatureF,DewpointF,PressureIn,WindDirection,WindDirectionDegrees,WindSpeedMPH,WindSpeedGustMPH,Humidity,HourlyPrecipIn,Conditions,Clouds,dailyrainin,SoftwareType,DateUTC
2013-03-22 00:04:00,65.3,60.7,29.57,South,175,7.0,13.0,85,0.00,,,0.00,Wunderground v.1.15,2013-03-22 05:04:00,
2013-03-22 00:06:00,65.3,60.7,29.57,South,189,7.0,16.0,85,0.00,,,0.00,Wunderground v.1.15,2013-03-22 05:06:00,
2013-03-22 00:07:00,65.2,60.6,29.57,SSE,161,7.0,16.0,85,0.00,,,0.00,Wunderground v.1.15,2013-03-22 05:07:00,
2013-03-22 00:08:00,65.2,60.6,29.57,SE,138,8.0,16.0,85,0.00,,,0.00,Wunderground v.1.15,2013-03-22 05:08:00,
2013-03-22 00:12:00,65.2,60.9,29.57,South,178,8.0,16.0,86,0.00,,,0.00,Wunderground v.1.15,2013-03-22 05:12:00,
2013-03-22 00:13:00,65.2,60.9,29.57,SSE,160,7.0,16.0,86,0.00,,,0.00,Wunderground v.1.15,2013-03-22 05:13:00,
2013-03-22 00:14:00,65.2,60.9,29.57,SSE,147,8.0,16.0,86,0.00,,,0.00,Wunderground v.1.15,2013-03-22 05:14:00,
2013-03-22 00:17:00,65.2,60.9,29.57,South,189,8.0,16.0,86,0.00,,,0.00,Wunderground v.1.15,2013-03-22 05:17:00,
2013-03-22 00:19:00,65.2,60.9,29.57,South,169,8.0,16.0,86,0.00,,,0.00,Wunderground v.1.15,2013-03-22 05:19:00,
2013-03-22 00:22:00,65.2,60.9,29.57,South,179,8.0,17.0,86,0.00,,,0.00,Wunderground v.1.15,2013-03-22 05:22:00,
2013-03-22 00:24:00,65.2,60.9,29.57,South,185,8.0,17.0,86,0.00,,,0.00,Wunderground v.1.15,2013-03-22 05:24:00,
2013-03-22 00:26:00,65.2,60.9,29.57,SW,215,7.0,17.0,86,0.00,,,0.00,Wunderground v.1.15,2013-03-22 05:26:00,
2013-03-22 00:27:00,65.2,60.9,29.57,SSW,205,7.0,17.0,86,0.00,,,0.00,Wunderground v.1.15,2013-03-22 05:27:00,
2013-03-22 00:28:00,65.2,61.2,29.57,SSW,213,7.0,17.0,87,0.00,,,0.00,Wunderground v.1.15,2013-03-22 05:28:00,
2013-03-22 00:32:00,65.2,61.2,29.56,SSW,199,6.0,6.0,87,0.00,,,0.00,Wunderground v.1.15,2013-03-22 05:32:00,
2013-03-22 00:33:00,65.2,61.2,29.56,South,182,6.0,18.0,87,0.00,,,0.00,Wunderground v.1.15,2013-03-22 05:33:00,
2013-03-22 00:38:00,65.2,61.2,29.56,South,179,7.0,18.0,87,0.00,,,0.00,Wunderground v.1.15,2013-03-22 05:38:00,
2013-03-22 00:39:00,65.2,61.2,29.56,South,176,6.0,18.0,87,0.00,,,0.00,Wunderground v.1.15,2013-03-22 05:39:00,
2013-03-22 00:42:00,65.2,61.2,29.56,South,184,7.0,13.0,87,0.00,,,0.00,Wunderground v.1.15,2013-03-22 05:42:00,
2013-03-22 00:44:00,65.0,61.4,29.56,SSE,164,7.0,13.0,88,0.00,,,0.00,Wunderground v.1.15,2013-03-22 05:44:00,
2013-03-22 00:47:00,65.0,61.4,29.56,SSW,192,6.0,13.0,88,0.00,,,0.00,Wunderground v.1.15,2013-03-22 05:47:00,
2013-03-22 00:51:00,65.0,61.4,29.56,SSW,200,7.0,15.0,88,0.00,,,0.00,Wunderground v.1.15,2013-03-22 05:51:00,
2013-03-22 00:54:00,64.8,61.2,29.56,SSW,200,7.0,15.0,88,0.00,,,0.00,Wunderground v.1.15,2013-03-22 05:54:00,
2013-03-22 00:56:00,64.8,61.2,29.56,SSW,196,7.0,15.0,88,0.00,,,0.00,Wunderground v.1.15,2013-03-22 05:56:00,
2013-03-22 00:59:00,64.8,61.5,29.56,SSE,168,7.0,15.0,89,0.00,,,0.00,Wunderground v.1.15,2013-03-22 05:59:00,
2013-03-22 01:01:00,64.8,61.5,29.56,South,191,7.0,17.0,89,0.00,,,0.00,Wunderground v.1.15,2013-03-22 06:01:00,
2013-03-22 01:02:00,64.8,61.5,29.56,South,181,7.0,17.0,89,0.00,,,0.00,Wunderground v.1.15,2013-03-22 06:02:00,
2013-03-22 01:04:00,64.7,61.4,29.56,SSW,202,6.0,17.0,89,0.00,,,0.00,Wunderground v.1.15,2013-03-22 06:04:00,
2013-03-22 01:08:00,64.7,61.4,29.56,SSE,168,6.0,17.0,89,0.00,,,0.00,Wunderground v.1.15,2013-03-22 06:08:00,
2013-03-22 01:09:00,64.7,61.4,29.56,SSW,199,7.0,17.0,89,0.00,,,0.00,Wunderground v.1.15,2013-03-22 06:09:00,
2013-03-22 01:11:00,64.7,61.4,29.56,SSW,209,7.0,13.0,89,0.00,,,0.00,Wunderground v.1.15,2013-03-22 06:11:00,
2013-03-22 01:14:00,64.7,61.4,29.56,South,179,7.0,13.0,89,0.00,,,0.00,Wunderground v.1.15,2013-03-22 06:14:00,
2013-03-22 01:16:00,64.7,61.4,29.56,South,188,7.0,13.0,89,0.00,,,0.00,Wunderground v.1.15,2013-03-22 06:16:00,
2013-03-22 01:17:00,64.7,61.4,29.56,SE,131,7.0,13.0,89,0.00,,,0.00,Wunderground v.1.15,2013-03-22 06:17:00,
2013-03-22 01:19:00,64.7,61.7,29.56,South,172,7.0,13.0,90,0.00,,,0.00,Wunderground v.1.15,2013-03-22 06:19:00,
2013-03-22 01:21:00,64.7,61.7,29.56,South,169,7.0,14.0,90,0.00,,,0.00,Wunderground v.1.15,2013-03-22 06:21:00,
2013-03-22 01:22:00,64.7,61.7,29.56,SSE,158,7.0,14.0,90,0.00,,,0.00,Wunderground v.1.15,2013-03-22 06:22:00,
2013-03-22 01:24:00,64.7,61.7,29.56,SSW,209,7.0,14.0,90,0.00,,,0.00,Wunderground v.1.15,2013-03-22 06:24:00,
2013-03-22 01:26:00,64.7,61.7,29.56,SSW,203,6.0,14.0,90,0.00,,,0.00,Wunderground v.1.15,2013-03-22 06:26:00,
2013-03-22 01:28:00,64.7,61.7,29.56,SSW,202,6.0,14.0,90,0.00,,,0.00,Wunderground v.1.15,2013-03-22 06:28:00,
2013-03-22 01:29:00,64.7,61.7,29.56,South,172,6.0,14.0,90,0.00,,,0.00,Wunderground v.1.15,2013-03-22 06:29:00,
2013-03-22 01:31:00,64.7,61.7,29.57,SSE,157,7.0,14.0,90,0.00,,,0.00,Wunderground v.1.15,2013-03-22 06:31:00,
2013-03-22 01:34:00,64.7,61.7,29.57,SSW,202,6.0,14.0,90,0.00,,,0.00,Wunderground v.1.15,2013-03-22 06:34:00,
2013-03-22 01:36:00,64.7,61.7,29.57,South,182,6.0,14.0,90,0.00,,,0.00,Wunderground v.1.15,2013-03-22 06:36:00,
2013-03-22 01:37:00,64.7,61.7,29.57,South,184,6.0,14.0,90,0.00,,,0.00,Wunderground v.1.15,2013-03-22 06:37:00,
2013-03-22 01:39:00,64.7,61.7,29.57,South,185,5.0,14.0,90,0.00,,,0.00,Wunderground v.1.15,2013-03-22 06:39:00,
2013-03-22 01:41:00,64.7,62.0,29.57,South,176,4.0,13.0,91,0.00,,,0.00,Wunderground v.1.15,2013-03-22 06:41:00,
2013-03-22 01:43:00,64.7,62.0,29.57,South,179,4.0,13.0,91,0.00,,,0.00,Wunderground v.1.15,2013-03-22 06:43:00,
2013-03-22 01:44:00,64.7,62.0,29.57,SSW,206,4.0,13.0,91,0.00,,,0.00,Wunderground v.1.15,2013-03-22 06:44:00,
2013-03-22 01:45:00,64.7,62.0,29.57,SSW,200,4.0,13.0,91,0.00,,,0.00,Wunderground v.1.15,2013-03-22 06:45:00,
2013-03-22 01:48:00,64.7,62.0,29.57,SSW,196,4.0,13.0,91,0.00,,,0.00,Wunderground v.1.15,2013-03-22 06:48:00,
2013-03-22 01:49:00,64.7,62.0,29.57,South,172,5.0,13.0,91,0.00,,,0.00,Wunderground v.1.15,2013-03-22 06:49:00,
2013-03-22 01:51:00,64.7,62.0,29.57,South,174,6.0,11.0,91,0.00,,,0.00,Wunderground v.1.15,2013-03-22 06:51:00,
2013-03-22 01:53:00,64.7,62.0,29.57,South,181,6.0,11.0,91,0.00,,,0.00,Wunderground v.1.15,2013-03-22 06:53:00,
2013-03-22 01:54:00,64.7,62.0,29.57,South,182,6.0,11.0,91,0.00,,,0.00,Wunderground v.1.15,2013-03-22 06:54:00,
2013-03-22 01:55:00,64.7,62.0,29.57,SSW,203,6.0,11.0,91,0.00,,,0.00,Wunderground v.1.15,2013-03-22 06:55:00,
2013-03-22 01:56:00,64.7,62.0,29.57,SSE,165,7.0,11.0,91,0.00,,,0.00,Wunderground v.1.15,2013-03-22 06:56:00,
2013-03-22 01:59:00,64.7,62.0,29.57,SSE,147,6.0,11.0,91,0.00,,,0.00,Wunderground v.1.15,2013-03-22 06:59:00,
2013-03-22 02:01:00,64.7,62.0,29.57,South,189,5.0,13.0,91,0.00,,,0.00,Wunderground v.1.15,2013-03-22 07:01:00,
2013-03-22 02:04:00,64.7,62.0,29.57,SSW,203,5.0,13.0,91,0.00,,,0.00,Wunderground v.1.15,2013-03-22 07:04:00,
2013-03-22 02:05:00,64.7,62.0,29.57,South,186,5.0,13.0,91,0.00,,,0.00,Wunderground v.1.15,2013-03-22 07:05:00,
2013-03-22 02:06:00,64.7,62.0,29.57,SSW,192,5.0,13.0,91,0.00,,,0.00,Wunderground v.1.15,2013-03-22 07:06:00,
2013-03-22 02:08:00,64.7,62.0,29.57,South,179,5.0,13.0,91,0.00,,,0.00,Wunderground v.1.15,2013-03-22 07:08:00,
2013-03-22 02:12:00,64.7,62.0,29.57,South,179,5.0,12.0,91,0.00,,,0.00,Wunderground v.1.15,2013-03-22 07:12:00,
2013-03-22 02:13:00,64.7,62.0,29.57,South,178,4.0,12.0,91,0.00,,,0.00,Wunderground v.1.15,2013-03-22 07:13:00,
2013-03-22 02:14:00,64.7,62.0,29.57,South,185,4.0,12.0,91,0.00,,,0.00,Wunderground v.1.15,2013-03-22 07:14:00,
2013-03-22 02:18:00,64.7,62.0,29.57,WSW,237,4.0,12.0,91,0.00,,,0.00,Wunderground v.1.15,2013-03-22 07:18:00,
2013-03-22 02:19:00,64.7,62.0,29.57,SW,219,4.0,12.0,91,0.00,,,0.00,Wunderground v.1.15,2013-03-22 07:19:00,
2013-03-22 02:21:00,64.7,62.0,29.57,SW,217,4.0,15.0,91,0.00,,,0.00,Wunderground v.1.15,2013-03-22 07:21:00,
2013-03-22 02:23:00,64.7,62.0,29.57,South,179,4.0,15.0,91,0.00,,,0.00,Wunderground v.1.15,2013-03-22 07:23:00,
2013-03-22 02:24:00,64.7,62.0,29.57,South,184,5.0,15.0,91,0.00,,,0.00,Wunderground v.1.15,2013-03-22 07:24:00,
2013-03-22 02:28:00,64.7,62.3,29.57,South,178,4.0,15.0,92,0.00,,,0.00,Wunderground v.1.15,2013-03-22 07:28:00,
2013-03-22 02:29:00,64.7,62.3,29.57,SSW,195,4.0,15.0,92,0.00,,,0.00,Wunderground v.1.15,2013-03-22 07:29:00,
2013-03-22 02:31:00,64.7,62.3,29.57,SSW,195,4.0,15.0,92,0.00,,,0.00,Wunderground v.1.15,2013-03-22 07:31:00,
2013-03-22 02:35:00,64.8,62.4,29.57,SSW,203,4.0,9.0,92,0.00,,,0.00,Wunderground v.1.15,2013-03-22 07:35:00,
2013-03-22 02:37:00,64.8,62.4,29.57,SSE,168,4.0,9.0,92,0.00,,,0.00,Wunderground v.1.15,2013-03-22 07:37:00,
2013-03-22 02:38:00,64.8,62.4,29.57,South,169,4.0,9.0,92,0.00,,,0.00,Wunderground v.1.15,2013-03-22 07:38:00,
2013-03-22 02:41:00,64.8,62.4,29.57,SW,216,4.0,9.0,92,0.00,,,0.00,Wunderground v.1.15,2013-03-22 07:41:00,
2013-03-22 02:42:00,64.8,62.4,29.57,SW,217,4.0,9.0,92,0.00,,,0.00,Wunderground v.1.15,2013-03-22 07:42:00,
2013-03-22 02:43:00,64.8,62.4,29.57,South,184,4.0,9.0,92,0.00,,,0.00,Wunderground v.1.15,2013-03-22 07:43:00,
2013-03-22 02:47:00,64.8,62.4,29.57,SSW,208,5.0,9.0,92,0.00,,,0.00,Wunderground v.1.15,2013-03-22 07:47:00,
2013-03-22 02:48:00,64.8,62.4,29.57,SSW,208,5.0,9.0,92,0.00,,,0.00,Wunderground v.1.15,2013-03-22 07:48:00,
2013-03-22 02:49:00,64.8,62.4,29.57,SSW,206,5.0,9.0,92,0.00,,,0.00,Wunderground v.1.15,2013-03-22 07:49:00,
2013-03-22 02:50:00,64.8,62.4,29.57,SSW,206,4.0,9.0,92,0.00,,,0.00,Wunderground v.1.15,2013-03-22 07:50:00,
2013-03-22 02:53:00,64.8,62.4,29.57,SSW,203,4.0,8.0,92,0.00,,,0.00,Wunderground v.1.15,2013-03-22 07:53:00,
2013-03-22 02:54:00,64.8,62.4,29.57,SSW,210,4.0,8.0,92,0.00,,,0.00,Wunderground v.1.15,2013-03-22 07:54:00,
2013-03-22 02:58:00,64.8,62.4,29.57,South,172,3.0,8.0,92,0.00,,,0.00,Wunderground v.1.15,2013-03-22 07:58:00,
2013-03-22 02:59:00,65.0,62.6,29.57,South,172,3.0,8.0,92,0.00,,,0.00,Wunderground v.1.15,2013-03-22 07:59:00,
2013-03-22 03:02:00,65.0,62.6,29.57,South,191,4.0,12.0,92,0.00,,,0.00,Wunderground v.1.15,2013-03-22 08:02:00,
2013-03-22 03:08:00,65.0,62.6,29.57,SSW,206,5.0,12.0,92,0.00,,,0.00,Wunderground v.1.15,2013-03-22 08:08:00,
2013-03-22 03:09:00,65.0,62.6,29.57,SSW,206,5.0,12.0,92,0.00,,,0.00,Wunderground v.1.15,2013-03-22 08:09:00,
2013-03-22 03:10:00,65.0,62.6,29.57,SSW,208,5.0,11.0,92,0.00,,,0.00,Wunderground v.1.15,2013-03-22 08:10:00,
2013-03-22 03:14:00,65.2,62.8,29.57,SW,220,5.0,11.0,92,0.00,,,0.00,Wunderground v.1.15,2013-03-22 08:14:00,
2013-03-22 03:16:00,65.2,62.8,29.56,SSW,212,5.0,11.0,92,0.00,,,0.00,Wunderground v.1.15,2013-03-22 08:16:00,
2013-03-22 03:19:00,65.2,62.8,29.56,SW,215,5.0,11.0,92,0.00,,,0.00,Wunderground v.1.15,2013-03-22 08:19:00,
2013-03-22 03:22:00,65.2,62.8,29.56,SSW,208,5.0,11.0,92,0.00,,,0.00,Wunderground v.1.15,2013-03-22 08:22:00,
2013-03-22 03:23:00,65.2,62.8,29.56,South,182,5.0,11.0,92,0.00,,,0.00,Wunderground v.1.15,2013-03-22 08:23:00,
2013-03-22 03:27:00,65.2,62.8,29.56,SSW,210,6.0,11.0,92,0.00,,,0.00,Wunderground v.1.15,2013-03-22 08:27:00,
2013-03-22 03:28:00,65.2,62.8,29.56,SSW,192,5.0,11.0,92,0.00,,,0.00,Wunderground v.1.15,2013-03-22 08:28:00,
2013-03-22 03:30:00,65.2,62.8,29.56,SSW,198,5.0,12.0,92,0.00,,,0.00,Wunderground v.1.15,2013-03-22 08:30:00,
2013-03-22 03:32:00,65.2,62.8,29.55,South,186,5.0,12.0,92,0.00,,,0.00,Wunderground v.1.15,2013-03-22 08:32:00,
2013-03-22 03:33:00,65.2,62.8,29.55,SSW,198,5.0,12.0,92,0.00,,,0.00,Wunderground v.1.15,2013-03-22 08:33:00,
2013-03-22 03:34:00,65.2,62.8,29.55,SSW,198,5.0,12.0,92,0.00,,,0.00,Wunderground v.1.15,2013-03-22 08:34:00,
2013-03-22 03:37:00,65.2,62.8,29.55,South,175,5.0,12.0,92,0.00,,,0.00,Wunderground v.1.15,2013-03-22 08:37:00,
2013-03-22 03:38:00,65.2,62.8,29.55,SW,230,5.0,12.0,92,0.00,,,0.00,Wunderground v.1.15,2013-03-22 08:38:00,
2013-03-22 03:42:00,65.2,62.8,29.55,SSW,193,5.0,13.0,92,0.00,,,0.00,Wunderground v.1.15,2013-03-22 08:42:00,
2013-03-22 03:43:00,65.2,62.8,29.55,SW,220,5.0,13.0,92,0.00,,,0.00,Wunderground v.1.15,2013-03-22 08:43:00,
2013-03-22 03:45:00,65.2,62.8,29.55,SSW,202,5.0,13.0,92,0.00,,,0.00,Wunderground v.1.15,2013-03-22 08:45:00,
2013-03-22 03:47:00,65.2,62.8,29.55,SSW,203,5.0,13.0,92,0.00,,,0.00,Wunderground v.1.15,2013-03-22 08:47:00,
2013-03-22 03:50:00,65.2,62.8,29.55,SW,230,6.0,6.0,92,0.00,,,0.00,Wunderground v.1.15,2013-03-22 08:50:00,
2013-03-22 03:52:00,65.2,62.8,29.55,SSW,198,6.0,11.0,92,0.00,,,0.00,Wunderground v.1.15,2013-03-22 08:52:00,
2013-03-22 03:53:00,65.2,62.8,29.55,SW,217,5.0,11.0,92,0.00,,,0.00,Wunderground v.1.15,2013-03-22 08:53:00,
2013-03-22 03:54:00,65.2,62.8,29.55,SSW,212,5.0,11.0,92,0.00,,,0.00,Wunderground v.1.15,2013-03-22 08:54:00,
2013-03-22 03:57:00,65.2,62.8,29.55,SSW,210,5.0,11.0,92,0.00,,,0.00,Wunderground v.1.15,2013-03-22 08:57:00,
2013-03-22 03:59:00,65.2,62.8,29.55,South,178,5.0,11.0,92,0.00,,,0.00,Wunderground v.1.15,2013-03-22 08:59:00,
2013-03-22 04:00:00,65.2,62.8,29.55,SSW,198,5.0,5.0,92,0.00,,,0.00,Wunderground v.1.15,2013-03-22 09:00:00,
2013-03-22 04:03:00,65.2,62.8,29.55,WSW,246,4.0,13.0,92,0.00,,,0.00,Wunderground v.1.15,2013-03-22 09:03:00,
2013-03-22 04:04:00,65.2,62.8,29.55,SW,216,4.0,13.0,92,0.00,,,0.00,Wunderground v.1.15,2013-03-22 09:04:00,
2013-03-22 04:07:00,65.2,63.1,29.55,SW,223,4.0,13.0,93,0.00,,,0.00,Wunderground v.1.15,2013-03-22 09:07:00,
2013-03-22 04:08:00,65.2,63.1,29.55,SW,222,4.0,13.0,93,0.00,,,0.00,Wunderground v.1.15,2013-03-22 09:08:00,
2013-03-22 04:10:00,65.2,63.1,29.55,SSW,195,4.0,12.0,93,0.00,,,0.00,Wunderground v.1.15,2013-03-22 09:10:00,
2013-03-22 04:15:00,65.2,63.1,29.55,SW,232,5.0,12.0,93,0.00,,,0.00,Wunderground v.1.15,2013-03-22 09:15:00,
2013-03-22 04:16:00,65.2,63.1,29.54,SSW,200,5.0,12.0,93,0.00,,,0.00,Wunderground v.1.15,2013-03-22 09:16:00,
2013-03-22 04:18:00,65.2,63.1,29.54,South,188,5.0,12.0,93,0.00,,,0.00,Wunderground v.1.15,2013-03-22 09:18:00,
2013-03-22 04:20:00,65.2,63.1,29.54,SSW,196,5.0,12.0,93,0.00,,,0.00,Wunderground v.1.15,2013-03-22 09:20:00,
2013-03-22 04:21:00,65.2,63.1,29.54,South,185,5.0,12.0,93,0.00,,,0.00,Wunderground v.1.15,2013-03-22 09:21:00,
2013-03-22 04:23:00,65.2,63.1,29.54,South,185,4.0,12.0,93,0.00,,,0.00,Wunderground v.1.15,2013-03-22 09:23:00,
2013-03-22 04:26:00,65.2,63.1,29.54,SSW,205,4.0,12.0,93,0.00,,,0.00,Wunderground v.1.15,2013-03-22 09:26:00,
2013-03-22 04:27:00,65.2,63.1,29.54,SSW,200,3.0,12.0,93,0.00,,,0.00,Wunderground v.1.15,2013-03-22 09:27:00,
2013-03-22 04:31:00,65.2,63.1,29.54,SSW,198,3.0,10.0,93,0.00,,,0.00,Wunderground v.1.15,2013-03-22 09:31:00,
2013-03-22 04:33:00,65.2,63.1,29.54,SSW,198,3.0,10.0,93,0.00,,,0.00,Wunderground v.1.15,2013-03-22 09:33:00,
2013-03-22 04:37:00,65.2,63.1,29.54,SSW,202,3.0,10.0,93,0.00,,,0.00,Wunderground v.1.15,2013-03-22 09:37:00,
2013-03-22 04:38:00,65.2,63.1,29.54,SSW,202,3.0,10.0,93,0.00,,,0.00,Wunderground v.1.15,2013-03-22 09:38:00,
2013-03-22 04:40:00,65.2,63.1,29.54,SSW,202,2.0,8.0,93,0.00,,,0.00,Wunderground v.1.15,2013-03-22 09:40:00,
2013-03-22 04:42:00,65.2,63.1,29.54,SW,217,3.0,8.0,93,0.00,,,0.00,Wunderground v.1.15,2013-03-22 09:42:00,
2013-03-22 04:46:00,65.2,63.1,29.54,South,175,3.0,8.0,93,0.00,,,0.00,Wunderground v.1.15,2013-03-22 09:46:00,
2013-03-22 04:48:00,65.2,63.1,29.54,South,176,3.0,8.0,93,0.00,,,0.00,Wunderground v.1.15,2013-03-22 09:48:00,
2013-03-22 04:49:00,65.2,63.1,29.54,SSW,205,3.0,8.0,93,0.00,,,0.00,Wunderground v.1.15,2013-03-22 09:49:00,
2013-03-22 04:50:00,65.3,63.2,29.54,SSW,210,3.0,8.0,93,0.00,,,0.00,Wunderground v.1.15,2013-03-22 09:50:00,
2013-03-22 04:53:00,65.3,63.2,29.54,SSW,195,3.0,8.0,93,0.00,,,0.00,Wunderground v.1.15,2013-03-22 09:53:00,
2013-03-22 04:54:00,65.3,63.2,29.54,SSW,193,4.0,8.0,93,0.00,,,0.00,Wunderground v.1.15,2013-03-22 09:54:00,
2013-03-22 04:56:00,65.3,63.2,29.54,SSW,198,4.0,8.0,93,0.00,,,0.00,Wunderground v.1.15,2013-03-22 09:56:00,
2013-03-22 04:58:00,65.3,63.2,29.54,SSW,210,5.0,8.0,93,0.00,,,0.00,Wunderground v.1.15,2013-03-22 09:58:00,
2013-03-22 05:00:00,65.3,63.2,29.54,SSW,212,4.0,8.0,93,0.00,,,0.00,Wunderground v.1.15,2013-03-22 10:00:00,
2013-03-22 05:06:00,65.5,63.4,29.54,SW,217,4.0,8.0,93,0.00,,,0.00,Wunderground v.1.15,2013-03-22 10:06:00,
2013-03-22 05:07:00,65.5,63.4,29.54,SSW,205,4.0,9.0,93,0.00,,,0.00,Wunderground v.1.15,2013-03-22 10:07:00,
2013-03-22 05:10:00,65.5,63.4,29.54,South,184,4.0,10.0,93,0.00,,,0.00,Wunderground v.1.15,2013-03-22 10:10:00,
2013-03-22 05:12:00,65.5,63.4,29.54,South,186,4.0,10.0,93,0.00,,,0.00,Wunderground v.1.15,2013-03-22 10:12:00,
2013-03-22 05:13:00,65.5,63.4,29.54,WSW,240,4.0,10.0,93,0.00,,,0.00,Wunderground v.1.15,2013-03-22 10:13:00,
2013-03-22 05:17:00,65.5,63.4,29.53,SSW,206,4.0,10.0,93,0.00,,,0.00,Wunderground v.1.15,2013-03-22 10:17:00,
2013-03-22 05:18:00,65.5,63.4,29.53,SSW,208,4.0,10.0,93,0.00,,,0.00,Wunderground v.1.15,2013-03-22 10:18:00,
2013-03-22 05:20:00,65.5,63.4,29.53,South,184,4.0,4.0,93,0.00,,,0.00,Wunderground v.1.15,2013-03-22 10:20:00,
2013-03-22 05:22:00,65.5,63.4,29.53,South,184,3.0,9.0,93,0.00,,,0.00,Wunderground v.1.15,2013-03-22 10:22:00,
2013-03-22 05:26:00,65.5,63.7,29.53,SSW,209,3.0,9.0,94,0.00,,,0.00,Wunderground v.1.15,2013-03-22 10:26:00,
2013-03-22 05:27:00,65.5,63.7,29.53,SSW,209,3.0,9.0,94,0.00,,,0.00,Wunderground v.1.15,2013-03-22 10:27:00,
2013-03-22 05:28:00,65.5,63.7,29.53,WSW,247,3.0,9.0,94,0.00,,,0.00,Wunderground v.1.15,2013-03-22 10:28:00,
2013-03-22 05:31:00,65.6,63.8,29.54,WSW,243,3.0,8.0,94,0.00,,,0.00,Wunderground v.1.15,2013-03-22 10:31:00,
2013-03-22 05:33:00,65.6,63.8,29.54,SW,223,4.0,8.0,94,0.00,,,0.00,Wunderground v.1.15,2013-03-22 10:33:00,
2013-03-22 05:36:00,65.6,63.8,29.54,SSW,203,3.0,8.0,94,0.00,,,0.00,Wunderground v.1.15,2013-03-22 10:36:00,
2013-03-22 05:37:00,65.6,63.8,29.54,SSW,203,3.0,8.0,94,0.00,,,0.00,Wunderground v.1.15,2013-03-22 10:37:00,
2013-03-22 05:40:00,65.6,63.8,29.54,SSW,213,4.0,4.0,94,0.00,,,0.00,Wunderground v.1.15,2013-03-22 10:40:00,
2013-03-22 05:44:00,65.6,63.8,29.54,SSW,212,4.0,12.0,94,0.00,,,0.00,Wunderground v.1.15,2013-03-22 10:44:00,
2013-03-22 05:46:00,65.6,63.8,29.54,SSW,213,4.0,12.0,94,0.00,,,0.00,Wunderground v.1.15,2013-03-22 10:46:00,
2013-03-22 05:48:00,65.6,64.1,29.54,SW,219,5.0,12.0,95,0.00,,,0.00,Wunderground v.1.15,2013-03-22 10:48:00,
2013-03-22 05:51:00,65.6,64.1,29.54,SSW,192,4.0,13.0,95,0.00,,,0.00,Wunderground v.1.15,2013-03-22 10:51:00,
2013-03-22 05:52:00,65.6,64.1,29.54,SSW,192,4.0,13.0,95,0.00,,,0.00,Wunderground v.1.15,2013-03-22 10:52:00,
2013-03-22 05:57:00,65.5,64.0,29.54,South,186,4.0,13.0,95,0.00,,,0.00,Wunderground v.1.15,2013-03-22 10:57:00,
2013-03-22 05:58:00,65.5,64.0,29.54,South,189,4.0,13.0,95,0.00,,,0.00,Wunderground v.1.15,2013-03-22 10:58:00,
2013-03-22 06:00:00,65.5,64.0,29.54,SW,222,4.0,9.0,95,0.00,,,0.00,Wunderground v.1.15,2013-03-22 11:00:00,
2013-03-22 06:03:00,65.5,64.0,29.54,SSW,199,4.0,9.0,95,0.00,,,0.00,Wunderground v.1.15,2013-03-22 11:03:00,
2013-03-22 06:05:00,65.5,64.0,29.54,WSW,237,4.0,9.0,95,0.00,,,0.00,Wunderground v.1.15,2013-03-22 11:05:00,
2013-03-22 06:07:00,65.5,64.0,29.54,SSW,209,4.0,9.0,95,0.00,,,0.00,Wunderground v.1.15,2013-03-22 11:07:00,
2013-03-22 06:10:00,65.5,64.0,29.54,SSW,196,5.0,10.0,95,0.00,,,0.00,Wunderground v.1.15,2013-03-22 11:10:00,
2013-03-22 06:12:00,65.5,64.0,29.54,South,184,5.0,10.0,95,0.00,,,0.00,Wunderground v.1.15,2013-03-22 11:12:00,
2013-03-22 06:14:00,65.5,64.0,29.54,South,191,5.0,10.0,95,0.00,,,0.00,Wunderground v.1.15,2013-03-22 11:14:00,
2013-03-22 06:15:00,65.5,64.0,29.54,South,191,5.0,10.0,95,0.00,,,0.00,Wunderground v.1.15,2013-03-22 11:15:00,
2013-03-22 06:17:00,65.5,64.3,29.55,SSW,213,5.0,10.0,96,0.00,,,0.00,Wunderground v.1.15,2013-03-22 11:17:00,
2013-03-22 06:21:00,65.5,64.3,29.55,SSW,199,4.0,13.0,96,0.00,,,0.00,Wunderground v.1.15,2013-03-22 11:21:00,
2013-03-22 06:23:00,65.5,64.3,29.55,SSW,202,4.0,13.0,96,0.00,,,0.00,Wunderground v.1.15,2013-03-22 11:23:00,
2013-03-22 06:25:00,65.5,64.3,29.55,WSW,237,5.0,13.0,96,0.00,,,0.00,Wunderground v.1.15,2013-03-22 11:25:00,
2013-03-22 06:27:00,65.5,64.3,29.55,SSW,205,5.0,13.0,96,0.00,,,0.00,Wunderground v.1.15,2013-03-22 11:27:00,
2013-03-22 06:32:00,65.5,64.3,29.55,SSW,206,4.0,9.0,96,0.00,,,0.00,Wunderground v.1.15,2013-03-22 11:32:00,
2013-03-22 06:34:00,65.5,64.3,29.55,SW,229,4.0,9.0,96,0.00,,,0.00,Wunderground v.1.15,2013-03-22 11:34:00,
2013-03-22 06:37:00,65.5,64.3,29.55,SSW,205,4.0,9.0,96,0.00,,,0.00,Wunderground v.1.15,2013-03-22 11:37:00,
2013-03-22 06:40:00,65.5,64.3,29.55,SSW,203,4.0,4.0,96,0.00,,,0.00,Wunderground v.1.15,2013-03-22 11:40:00,
2013-03-22 06:41:00,65.5,64.3,29.55,SSW,203,4.0,13.0,96,0.00,,,0.00,Wunderground v.1.15,2013-03-22 11:41:00,
2013-03-22 06:43:00,65.5,64.3,29.55,SSW,210,4.0,13.0,96,0.00,,,0.00,Wunderground v.1.15,2013-03-22 11:43:00,
2013-03-22 06:44:00,65.5,64.3,29.55,SSW,210,4.0,13.0,96,0.00,,,0.00,Wunderground v.1.15,2013-03-22 11:44:00,
2013-03-22 06:48:00,65.5,64.3,29.56,SW,226,4.0,13.0,96,0.00,,,0.00,Wunderground v.1.15,2013-03-22 11:48:00,
2013-03-22 06:50:00,65.5,64.3,29.56,WSW,240,3.0,3.0,96,0.00,,,0.00,Wunderground v.1.15,2013-03-22 11:50:00,
2013-03-22 06:51:00,65.5,64.3,29.56,SSW,205,4.0,4.0,96,0.00,,,0.00,Wunderground v.1.15,2013-03-22 11:51:00,
2013-03-22 06:54:00,65.5,64.3,29.56,SSW,196,3.0,8.0,96,0.00,,,0.00,Wunderground v.1.15,2013-03-22 11:54:00,
2013-03-22 06:55:00,65.5,64.3,29.56,SSW,196,3.0,8.0,96,0.00,,,0.00,Wunderground v.1.15,2013-03-22 11:55:00,
2013-03-22 06:57:00,65.5,64.3,29.56,SW,224,3.0,8.0,96,0.00,,,0.00,Wunderground v.1.15,2013-03-22 11:57:00,
2013-03-22 07:00:00,65.5,64.3,29.56,SW,224,3.0,8.0,96,0.00,,,0.00,Wunderground v.1.15,2013-03-22 12:00:00,
2013-03-22 07:01:00,65.5,64.3,29.56,SW,220,3.0,8.0,96,0.00,,,0.00,Wunderground v.1.15,2013-03-22 12:01:00,
2013-03-22 07:03:00,65.5,64.3,29.56,SW,215,3.0,8.0,96,0.00,,,0.00,Wunderground v.1.15,2013-03-22 12:03:00,
2013-03-22 07:06:00,65.5,64.3,29.56,SSW,210,4.0,8.0,96,0.00,,,0.00,Wunderground v.1.15,2013-03-22 12:06:00,
2013-03-22 07:07:00,65.5,64.3,29.56,SSW,212,3.0,8.0,96,0.00,,,0.00,Wunderground v.1.15,2013-03-22 12:07:00,
2013-03-22 07:08:00,65.5,64.3,29.56,SSW,210,3.0,8.0,96,0.00,,,0.00,Wunderground v.1.15,2013-03-22 12:08:00,
2013-03-22 07:12:00,65.5,64.3,29.56,SSW,212,3.0,8.0,96,0.00,,,0.00,Wunderground v.1.15,2013-03-22 12:12:00,
2013-03-22 07:13:00,65.5,64.6,29.56,SSW,203,3.0,8.0,97,0.00,,,0.00,Wunderground v.1.15,2013-03-22 12:13:00,
2013-03-22 07:14:00,65.5,64.6,29.56,SSW,203,2.0,8.0,97,0.00,,,0.00,Wunderground v.1.15,2013-03-22 12:14:00,
2013-03-22 07:17:00,65.5,64.6,29.57,SSW,203,3.0,8.0,97,0.00,,,0.00,Wunderground v.1.15,2013-03-22 12:17:00,
2013-03-22 07:20:00,65.5,64.6,29.57,SSW,203,3.0,3.0,97,0.00,,,0.00,Wunderground v.1.15,2013-03-22 12:20:00,
2013-03-22 07:21:00,65.5,64.6,29.57,SSW,203,3.0,7.0,97,0.00,,,0.00,Wunderground v.1.15,2013-03-22 12:21:00,
2013-03-22 07:23:00,65.6,64.7,29.57,South,179,3.0,7.0,97,0.00,,,0.00,Wunderground v.1.15,2013-03-22 12:23:00,
2013-03-22 07:25:00,65.6,64.7,29.57,SSW,205,3.0,7.0,97,0.00,,,0.00,Wunderground v.1.15,2013-03-22 12:25:00,
2013-03-22 07:26:00,65.6,64.7,29.57,SSW,205,2.0,7.0,97,0.00,,,0.00,Wunderground v.1.15,2013-03-22 12:26:00,
2013-03-22 07:32:00,65.6,64.7,29.57,SW,227,2.0,8.0,97,0.00,,,0.00,Wunderground v.1.15,2013-03-22 12:32:00,
2013-03-22 07:33:00,65.6,64.7,29.57,SW,226,2.0,8.0,97,0.00,,,0.00,Wunderground v.1.15,2013-03-22 12:33:00,
2013-03-22 07:35:00,65.6,64.7,29.57,SW,226,2.0,8.0,97,0.00,,,0.00,Wunderground v.1.15,2013-03-22 12:35:00,
2013-03-22 07:37:00,65.6,64.7,29.57,SSW,213,2.0,8.0,97,0.00,,,0.00,Wunderground v.1.15,2013-03-22 12:37:00,
2013-03-22 07:38:00,65.6,64.7,29.57,SSW,199,2.0,8.0,97,0.00,,,0.00,Wunderground v.1.15,2013-03-22 12:38:00,
2013-03-22 07:41:00,65.6,64.7,29.57,SSW,206,3.0,6.0,97,0.00,,,0.00,Wunderground v.1.15,2013-03-22 12:41:00,
2013-03-22 07:42:00,65.6,64.7,29.57,SSW,208,3.0,6.0,97,0.00,,,0.00,Wunderground v.1.15,2013-03-22 12:42:00,
2013-03-22 07:44:00,65.6,64.7,29.57,SW,219,3.0,6.0,97,0.00,,,0.00,Wunderground v.1.15,2013-03-22 12:44:00,
2013-03-22 07:45:00,65.8,64.9,29.57,SSW,212,3.0,6.0,97,0.00,,,0.00,Wunderground v.1.15,2013-03-22 12:45:00,
2013-03-22 07:47:00,65.8,64.9,29.57,SW,215,4.0,6.0,97,0.00,,,0.00,Wunderground v.1.15,2013-03-22 12:47:00,
2013-03-22 07:50:00,65.8,64.9,29.57,SSW,198,3.0,7.0,97,0.00,,,0.00,Wunderground v.1.15,2013-03-22 12:50:00,
2013-03-22 07:52:00,65.8,64.9,29.57,SSW,210,3.0,8.0,97,0.00,,,0.00,Wunderground v.1.15,2013-03-22 12:52:00,
2013-03-22 07:55:00,65.8,64.9,29.57,SSW,192,3.0,8.0,97,0.00,,,0.00,Wunderground v.1.15,2013-03-22 12:55:00,
2013-03-22 07:56:00,65.8,64.9,29.57,SSW,193,3.0,8.0,97,0.00,,,0.00,Wunderground v.1.15,2013-03-22 12:56:00,
2013-03-22 07:57:00,66.0,65.1,29.57,SSW,205,3.0,8.0,97,0.00,,,0.00,Wunderground v.1.15,2013-03-22 12:57:00,
2013-03-22 07:58:00,66.0,65.1,29.57,SSW,213,3.0,8.0,97,0.00,,,0.00,Wunderground v.1.15,2013-03-22 12:58:00,
2013-03-22 08:02:00,66.0,65.4,29.57,SSW,213,4.0,7.0,98,0.00,,,0.00,Wunderground v.1.15,2013-03-22 13:02:00,
2013-03-22 08:03:00,66.0,65.4,29.57,SSW,213,4.0,7.0,98,0.00,,,0.00,Wunderground v.1.15,2013-03-22 13:03:00,
2013-03-22 08:04:00,66.0,65.4,29.57,SSW,213,4.0,7.0,98,0.00,,,0.00,Wunderground v.1.15,2013-03-22 13:04:00,
2013-03-22 08:05:00,66.0,65.4,29.57,SSW,213,4.0,7.0,98,0.00,,,0.00,Wunderground v.1.15,2013-03-22 13:05:00,
2013-03-22 08:08:00,66.1,65.5,29.57,SSW,209,4.0,7.0,98,0.00,,,0.00,Wunderground v.1.15,2013-03-22 13:08:00,
2013-03-22 08:10:00,66.1,65.5,29.57,SSW,209,3.0,11.0,98,0.00,,,0.00,Wunderground v.1.15,2013-03-22 13:10:00,
2013-03-22 08:11:00,66.1,65.5,29.57,SSW,209,3.0,11.0,98,0.00,,,0.00,Wunderground v.1.15,2013-03-22 13:11:00,
2013-03-22 08:13:00,66.1,65.5,29.57,SSW,200,3.0,11.0,98,0.00,,,0.00,Wunderground v.1.15,2013-03-22 13:13:00,
2013-03-22 08:14:00,66.3,65.7,29.57,SSW,200,3.0,11.0,98,0.00,,,0.00,Wunderground v.1.15,2013-03-22 13:14:00,
2013-03-22 08:17:00,66.3,65.7,29.58,SSW,200,3.0,11.0,98,0.00,,,0.00,Wunderground v.1.15,2013-03-22 13:17:00,
2013-03-22 08:20:00,66.3,65.7,29.58,SSW,203,3.0,3.0,98,0.00,,,0.00,Wunderground v.1.15,2013-03-22 13:20:00,
2013-03-22 08:21:00,66.3,65.7,29.58,SSW,203,3.0,8.0,98,0.00,,,0.00,Wunderground v.1.15,2013-03-22 13:21:00,
2013-03-22 08:24:00,66.3,65.7,29.58,SSW,202,2.0,8.0,98,0.00,,,0.00,Wunderground v.1.15,2013-03-22 13:24:00,
2013-03-22 08:25:00,66.4,65.8,29.58,SSW,202,2.0,8.0,98,0.00,,,0.00,Wunderground v.1.15,2013-03-22 13:25:00,
2013-03-22 08:26:00,66.4,65.8,29.58,SSW,202,2.0,8.0,98,0.00,,,0.00,Wunderground v.1.15,2013-03-22 13:26:00,
2013-03-22 08:30:00,66.4,65.8,29.58,SSW,206,2.0,7.0,98,0.00,,,0.00,Wunderground v.1.15,2013-03-22 13:30:00,
2013-03-22 08:31:00,66.4,65.8,29.58,SSW,206,2.0,7.0,98,0.00,,,0.00,Wunderground v.1.15,2013-03-22 13:31:00,
2013-03-22 08:32:00,66.4,65.8,29.58,SSW,208,2.0,7.0,98,0.00,,,0.00,Wunderground v.1.15,2013-03-22 13:32:00,
2013-03-22 08:35:00,66.4,65.8,29.58,SSW,213,3.0,7.0,98,0.00,,,0.00,Wunderground v.1.15,2013-03-22 13:35:00,
2013-03-22 08:37:00,66.4,65.8,29.58,SSW,213,2.0,7.0,98,0.00,,,0.00,Wunderground v.1.15,2013-03-22 13:37:00,
2013-03-22 08:40:00,66.4,65.8,29.58,SSW,213,3.0,3.0,98,0.00,,,0.00,Wunderground v.1.15,2013-03-22 13:40:00,
2013-03-22 08:41:00,66.6,66.0,29.58,SSW,213,2.0,7.0,98,0.00,,,0.00,Wunderground v.1.15,2013-03-22 13:41:00,
2013-03-22 08:42:00,66.4,65.8,29.58,SSW,213,2.0,7.0,98,0.00,,,0.00,Wunderground v.1.15,2013-03-22 13:42:00,
2013-03-22 08:45:00,66.4,65.8,29.58,SW,222,3.0,7.0,98,0.00,,,0.00,Wunderground v.1.15,2013-03-22 13:45:00,
2013-03-22 08:46:00,66.6,66.0,29.59,SW,222,3.0,7.0,98,0.00,,,0.00,Wunderground v.1.15,2013-03-22 13:46:00,
2013-03-22 08:48:00,66.6,66.0,29.59,SW,219,3.0,7.0,98,0.00,,,0.00,Wunderground v.1.15,2013-03-22 13:48:00,
2013-03-22 08:51:00,66.6,66.0,29.59,South,191,3.0,5.0,98,0.00,,,0.00,Wunderground v.1.15,2013-03-22 13:51:00,
2013-03-22 08:53:00,66.6,66.0,29.59,SSE,161,3.0,6.0,98,0.00,,,0.00,Wunderground v.1.15,2013-03-22 13:53:00,
2013-03-22 08:55:00,66.8,66.2,29.59,SSE,162,3.0,6.0,98,0.00,,,0.00,Wunderground v.1.15,2013-03-22 13:55:00,
2013-03-22 08:58:00,66.6,66.0,29.59,South,178,2.0,6.0,98,0.00,,,0.00,Wunderground v.1.15,2013-03-22 13:58:00,
2013-03-22 08:59:00,66.8,66.2,29.59,South,178,2.0,6.0,98,0.00,,,0.00,Wunderground v.1.15,2013-03-22 13:59:00,
2013-03-22 09:04:00,66.8,66.2,29.59,SSW,203,2.0,9.0,98,0.00,,,0.00,Wunderground v.1.15,2013-03-22 14:04:00,
2013-03-22 09:07:00,66.8,66.5,29.59,South,182,1.0,9.0,99,0.00,,,0.00,Wunderground v.1.15,2013-03-22 14:07:00,
2013-03-22 09:08:00,66.8,66.5,29.59,South,184,2.0,9.0,99,0.00,,,0.00,Wunderground v.1.15,2013-03-22 14:08:00,
2013-03-22 09:09:00,66.8,66.5,29.59,SSW,198,2.0,9.0,99,0.00,,,0.00,Wunderground v.1.15,2013-03-22 14:09:00,
2013-03-22 09:13:00,66.8,66.5,29.59,SSW,209,3.0,7.0,99,0.00,,,0.00,Wunderground v.1.15,2013-03-22 14:13:00,
2013-03-22 09:15:00,66.8,66.5,29.59,SSW,210,3.0,7.0,99,0.00,,,0.00,Wunderground v.1.15,2013-03-22 14:15:00,
2013-03-22 09:18:00,66.9,66.6,29.60,SSW,212,3.0,7.0,99,0.00,,,0.00,Wunderground v.1.15,2013-03-22 14:18:00,
2013-03-22 09:22:00,66.9,66.6,29.60,SSW,212,3.0,8.0,99,0.00,,,0.00,Wunderground v.1.15,2013-03-22 14:22:00,
2013-03-22 09:25:00,66.9,66.6,29.60,SSW,198,2.0,8.0,99,0.00,,,0.00,Wunderground v.1.15,2013-03-22 14:25:00,
2013-03-22 09:28:00,66.9,66.6,29.60,SSW,206,3.0,8.0,99,0.00,,,0.00,Wunderground v.1.15,2013-03-22 14:28:00,
2013-03-22 09:31:00,66.9,66.6,29.60,SSW,210,3.0,7.0,99,0.00,,,0.00,Wunderground v.1.15,2013-03-22 14:31:00,
2013-03-22 09:33:00,66.9,66.6,29.60,SSW,210,3.0,7.0,99,0.00,,,0.00,Wunderground v.1.15,2013-03-22 14:33:00,
2013-03-22 09:34:00,66.9,66.6,29.60,SSW,210,3.0,7.0,99,0.00,,,0.00,Wunderground v.1.15,2013-03-22 14:34:00,
2013-03-22 09:35:00,67.1,66.8,29.60,SSW,210,3.0,7.0,99,0.00,,,0.00,Wunderground v.1.15,2013-03-22 14:35:00,
2013-03-22 09:39:00,67.1,66.8,29.60,SW,234,2.0,7.0,99,0.00,,,0.00,Wunderground v.1.15,2013-03-22 14:39:00,
2013-03-22 09:41:00,67.1,66.8,29.60,WSW,237,2.0,8.0,99,0.00,,,0.00,Wunderground v.1.15,2013-03-22 14:41:00,
2013-03-22 09:42:00,67.1,66.8,29.60,WSW,237,2.0,8.0,99,0.00,,,0.00,Wunderground v.1.15,2013-03-22 14:42:00,
2013-03-22 09:44:00,67.1,66.8,29.60,WSW,237,2.0,8.0,99,0.00,,,0.00,Wunderground v.1.15,2013-03-22 14:44:00,
2013-03-22 09:46:00,67.1,66.8,29.61,SW,233,3.0,8.0,99,0.00,,,0.00,Wunderground v.1.15,2013-03-22 14:46:00,
2013-03-22 09:47:00,67.1,66.8,29.61,SW,233,3.0,8.0,99,0.00,,,0.00,Wunderground v.1.15,2013-03-22 14:47:00,
2013-03-22 09:48:00,67.1,66.8,29.61,SW,233,3.0,8.0,99,0.00,,,0.00,Wunderground v.1.15,2013-03-22 14:48:00,
2013-03-22 09:52:00,67.3,67.0,29.61,SW,233,1.0,8.0,99,0.00,,,0.00,Wunderground v.1.15,2013-03-22 14:52:00,
2013-03-22 09:54:00,67.3,67.0,29.61,SW,233,1.0,8.0,99,0.00,,,0.00,Wunderground v.1.15,2013-03-22 14:54:00,
2013-03-22 09:56:00,67.3,67.0,29.61,SW,233,0.0,8.0,99,0.00,,,0.00,Wunderground v.1.15,2013-03-22 14:56:00,
2013-03-22 09:58:00,67.3,67.0,29.61,SW,234,0.0,8.0,99,0.00,,,0.00,Wunderground v.1.15,2013-03-22 14:58:00,
2013-03-22 10:01:00,67.3,67.0,29.62,SW,233,1.0,2.0,99,0.00,,,0.00,Wunderground v.1.15,2013-03-22 15:01:00,
2013-03-22 10:02:00,67.1,66.8,29.62,SW,233,1.0,3.0,99,0.00,,,0.00,Wunderground v.1.15,2013-03-22 15:02:00,
2013-03-22 10:06:00,67.1,66.8,29.62,SW,234,1.0,7.0,99,0.00,,,0.00,Wunderground v.1.15,2013-03-22 15:06:00,
2013-03-22 10:08:00,67.1,66.8,29.62,SW,234,2.0,7.0,99,0.00,,,0.00,Wunderground v.1.15,2013-03-22 15:08:00,
2013-03-22 10:11:00,67.1,66.8,29.62,SW,234,2.0,6.0,99,0.00,,,0.00,Wunderground v.1.15,2013-03-22 15:11:00,
2013-03-22 10:12:00,67.1,66.8,29.62,SW,234,2.0,6.0,99,0.00,,,0.00,Wunderground v.1.15,2013-03-22 15:12:00,
2013-03-22 10:15:00,67.1,66.8,29.62,WSW,237,2.0,6.0,99,0.00,,,0.00,Wunderground v.1.15,2013-03-22 15:15:00,
2013-03-22 10:16:00,67.1,66.8,29.63,WSW,237,2.0,6.0,99,0.00,,,0.00,Wunderground v.1.15,2013-03-22 15:16:00,
2013-03-22 10:18:00,67.1,66.8,29.63,WSW,239,2.0,6.0,99,0.00,,,0.00,Wunderground v.1.15,2013-03-22 15:18:00,
2013-03-22 10:20:00,67.1,66.8,29.63,WSW,239,2.0,2.0,99,0.00,,,0.00,Wunderground v.1.15,2013-03-22 15:20:00,
2013-03-22 10:22:00,67.3,67.0,29.63,WSW,239,2.0,5.0,99,0.00,,,0.00,Wunderground v.1.15,2013-03-22 15:22:00,
2013-03-22 10:24:00,67.3,67.0,29.63,WSW,239,2.0,7.0,99,0.00,,,0.00,Wunderground v.1.15,2013-03-22 15:24:00,
2013-03-22 10:25:00,67.3,67.0,29.63,WSW,239,2.0,7.0,99,0.00,,,0.00,Wunderground v.1.15,2013-03-22 15:25:00,
2013-03-22 10:29:00,67.4,67.1,29.63,WSW,237,2.0,7.0,99,0.00,,,0.00,Wunderground v.1.15,2013-03-22 15:29:00,
2013-03-22 10:30:00,67.4,67.1,29.63,SW,236,2.0,2.0,99,0.00,,,0.00,Wunderground v.1.15,2013-03-22 15:30:00,
2013-03-22 10:33:00,67.4,67.1,29.63,SW,223,2.0,8.0,99,0.00,,,0.00,Wunderground v.1.15,2013-03-22 15:33:00,
2013-03-22 10:34:00,67.4,67.1,29.63,SW,223,2.0,8.0,99,0.00,,,0.00,Wunderground v.1.15,2013-03-22 15:34:00,
2013-03-22 10:36:00,67.4,67.1,29.63,SW,224,2.0,8.0,99,0.00,,,0.00,Wunderground v.1.15,2013-03-22 15:36:00,
2013-03-22 10:42:00,67.6,67.3,29.63,SW,216,2.0,7.0,99,0.00,,,0.00,Wunderground v.1.15,2013-03-22 15:42:00,
2013-03-22 10:43:00,67.6,67.3,29.63,SW,215,2.0,7.0,99,0.00,,,0.00,Wunderground v.1.15,2013-03-22 15:43:00,
2013-03-22 10:44:00,67.6,67.3,29.63,SW,215,2.0,7.0,99,0.00,,,0.00,Wunderground v.1.15,2013-03-22 15:44:00,
2013-03-22 10:45:00,67.6,67.3,29.63,South,185,2.0,7.0,99,0.00,,,0.00,Wunderground v.1.15,2013-03-22 15:45:00,
2013-03-22 10:48:00,67.6,67.3,29.62,SSW,209,2.0,7.0,99,0.00,,,0.00,Wunderground v.1.15,2013-03-22 15:48:00,
2013-03-22 10:49:00,67.6,67.3,29.62,SSW,208,2.0,7.0,99,0.00,,,0.00,Wunderground v.1.15,2013-03-22 15:49:00,
2013-03-22 10:52:00,67.8,67.5,29.62,SSW,209,2.0,6.0,99,0.00,,,0.00,Wunderground v.1.15,2013-03-22 15:52:00,
2013-03-22 10:54:00,67.8,67.5,29.62,SSW,209,2.0,6.0,99,0.00,,,0.00,Wunderground v.1.15,2013-03-22 15:54:00,
2013-03-22 10:55:00,67.8,67.5,29.62,SSW,210,2.0,6.0,99,0.00,,,0.00,Wunderground v.1.15,2013-03-22 15:55:00,
2013-03-22 10:57:00,67.8,67.5,29.62,SSW,212,2.0,6.0,99,0.00,,,0.00,Wunderground v.1.15,2013-03-22 15:57:00,
2013-03-22 10:59:00,67.6,67.3,29.62,SSW,210,2.0,6.0,99,0.00,,,0.00,Wunderground v.1.15,2013-03-22 15:59:00,
2013-03-22 11:00:00,67.6,67.3,29.62,South,182,2.0,7.0,99,0.00,,,0.00,Wunderground v.1.15,2013-03-22 16:00:00,
2013-03-22 11:03:00,67.4,67.1,29.62,South,181,3.0,7.0,99,0.00,,,0.00,Wunderground v.1.15,2013-03-22 16:03:00,
2013-03-22 11:06:00,67.6,67.0,29.62,South,191,3.0,7.0,98,0.00,,,0.00,Wunderground v.1.15,2013-03-22 16:06:00,
2013-03-22 11:07:00,67.6,67.3,29.62,SSW,193,3.0,7.0,99,0.00,,,0.00,Wunderground v.1.15,2013-03-22 16:07:00,
2013-03-22 11:09:00,67.4,66.8,29.62,South,178,4.0,7.0,98,0.00,,,0.00,Wunderground v.1.15,2013-03-22 16:09:00,
2013-03-22 11:13:00,67.6,67.0,29.62,SSW,196,3.0,7.0,98,0.00,,,0.00,Wunderground v.1.15,2013-03-22 16:13:00,
2013-03-22 11:14:00,67.6,67.0,29.62,SW,236,3.0,7.0,98,0.00,,,0.00,Wunderground v.1.15,2013-03-22 16:14:00,
2013-03-22 11:16:00,67.6,67.0,29.62,SW,236,3.0,7.0,98,0.00,,,0.00,Wunderground v.1.15,2013-03-22 16:16:00,
2013-03-22 11:21:00,67.8,67.2,29.62,South,174,2.0,8.0,98,0.00,,,0.00,Wunderground v.1.15,2013-03-22 16:21:00,
2013-03-22 11:22:00,67.6,67.0,29.62,South,174,2.0,8.0,98,0.00,,,0.00,Wunderground v.1.15,2013-03-22 16:22:00,
2013-03-22 11:23:00,67.6,67.0,29.62,South,175,2.0,8.0,98,0.00,,,0.00,Wunderground v.1.15,2013-03-22 16:23:00,
2013-03-22 11:28:00,67.4,66.8,29.62,SSW,202,2.0,8.0,98,0.00,,,0.00,Wunderground v.1.15,2013-03-22 16:28:00,
2013-03-22 11:29:00,67.4,66.8,29.62,SSW,202,2.0,8.0,98,0.00,,,0.00,Wunderground v.1.15,2013-03-22 16:29:00,
2013-03-22 11:32:00,67.4,66.8,29.62,SSW,206,3.0,8.0,98,0.00,,,0.00,Wunderground v.1.15,2013-03-22 16:32:00,
2013-03-22 11:34:00,67.4,66.5,29.62,SSW,206,3.0,8.0,97,0.00,,,0.00,Wunderground v.1.15,2013-03-22 16:34:00,
2013-03-22 11:35:00,67.4,66.5,29.62,SSW,208,3.0,8.0,97,0.00,,,0.00,Wunderground v.1.15,2013-03-22 16:35:00,
2013-03-22 11:40:00,67.4,66.5,29.62,SSW,212,2.0,2.0,97,0.00,,,0.00,Wunderground v.1.15,2013-03-22 16:40:00,
2013-03-22 11:41:00,67.4,66.5,29.62,SSW,210,2.0,10.0,97,0.00,,,0.00,Wunderground v.1.15,2013-03-22 16:41:00,
2013-03-22 11:43:00,67.4,66.2,29.62,SSW,210,2.0,10.0,96,0.00,,,0.00,Wunderground v.1.15,2013-03-22 16:43:00,
2013-03-22 11:46:00,67.8,66.6,29.63,SSW,210,2.0,10.0,96,0.00,,,0.00,Wunderground v.1.15,2013-03-22 16:46:00,
2013-03-22 11:47:00,67.6,66.4,29.63,SSW,210,2.0,10.0,96,0.00,,,0.00,Wunderground v.1.15,2013-03-22 16:47:00,
2013-03-22 11:49:00,67.8,66.6,29.63,SSW,210,2.0,10.0,96,0.00,,,0.00,Wunderground v.1.15,2013-03-22 16:49:00,
2013-03-22 11:51:00,67.9,66.4,29.63,SSW,206,2.0,6.0,95,0.00,,,0.00,Wunderground v.1.15,2013-03-22 16:51:00,
2013-03-22 11:52:00,67.9,66.4,29.63,SSW,205,2.0,6.0,95,0.00,,,0.00,Wunderground v.1.15,2013-03-22 16:52:00,
2013-03-22 11:53:00,67.9,66.4,29.63,SSW,203,2.0,6.0,95,0.00,,,0.00,Wunderground v.1.15,2013-03-22 16:53:00,
2013-03-22 11:57:00,67.8,66.0,29.63,SSE,165,3.0,6.0,94,0.00,,,0.00,Wunderground v.1.15,2013-03-22 16:57:00,
2013-03-22 11:58:00,67.8,66.0,29.63,SSE,165,3.0,6.0,94,0.00,,,0.00,Wunderground v.1.15,2013-03-22 16:58:00,
2013-03-22 12:00:00,68.1,66.3,29.63,SSE,165,3.0,3.0,94,0.00,,,0.00,Wunderground v.1.15,2013-03-22 17:00:00,
2013-03-22 12:05:00,68.4,66.0,29.63,SSE,165,2.0,5.0,92,0.00,,,0.00,Wunderground v.1.15,2013-03-22 17:05:00,
2013-03-22 12:06:00,68.6,66.2,29.63,SSE,167,1.0,5.0,92,0.00,,,0.00,Wunderground v.1.15,2013-03-22 17:06:00,
2013-03-22 12:09:00,68.9,66.2,29.63,SSE,165,1.0,5.0,91,0.00,,,0.00,Wunderground v.1.15,2013-03-22 17:09:00,
2013-03-22 12:12:00,69.1,66.4,29.63,SSE,167,0.0,8.0,91,0.00,,,0.00,Wunderground v.1.15,2013-03-22 17:12:00,
2013-03-22 12:14:00,69.1,66.0,29.63,SSE,167,1.0,8.0,90,0.00,,,0.00,Wunderground v.1.15,2013-03-22 17:14:00,
2013-03-22 12:16:00,69.1,66.0,29.63,South,191,1.0,8.0,90,0.00,,,0.00,Wunderground v.1.15,2013-03-22 17:16:00,
2013-03-22 12:17:00,69.1,66.0,29.63,SSW,193,2.0,8.0,90,0.00,,,0.00,Wunderground v.1.15,2013-03-22 17:17:00,
2013-03-22 12:18:00,69.3,65.9,29.63,SSE,155,2.0,8.0,89,0.00,,,0.00,Wunderground v.1.15,2013-03-22 17:18:00,
2013-03-22 12:22:00,69.3,65.6,29.63,SE,126,3.0,7.0,88,0.00,,,0.00,Wunderground v.1.15,2013-03-22 17:22:00,
2013-03-22 12:23:00,69.4,65.4,29.63,SE,126,3.0,7.0,87,0.00,,,0.00,Wunderground v.1.15,2013-03-22 17:23:00,
2013-03-22 12:25:00,69.6,65.2,29.63,SSE,150,3.0,7.0,86,0.00,,,0.00,Wunderground v.1.15,2013-03-22 17:25:00,
2013-03-22 12:28:00,70.3,65.6,29.63,ESE,114,4.0,7.0,85,0.00,,,0.00,Wunderground v.1.15,2013-03-22 17:28:00,
2013-03-22 12:29:00,70.3,65.2,29.63,SW,227,4.0,7.0,84,0.00,,,0.00,Wunderground v.1.15,2013-03-22 17:29:00,
2013-03-22 12:30:00,70.4,64.6,29.63,SSW,198,4.0,7.0,82,0.00,,,0.00,Wunderground v.1.15,2013-03-22 17:30:00,
2013-03-22 12:33:00,70.8,65.0,29.62,SSW,206,4.0,7.0,82,0.00,,,0.00,Wunderground v.1.15,2013-03-22 17:33:00,
2013-03-22 12:34:00,70.8,64.7,29.62,WSW,258,4.0,7.0,81,0.00,,,0.00,Wunderground v.1.15,2013-03-22 17:34:00,
2013-03-22 12:37:00,70.9,64.4,29.62,South,189,5.0,11.0,80,0.00,,,0.00,Wunderground v.1.15,2013-03-22 17:37:00,
2013-03-22 12:39:00,70.9,64.1,29.62,South,186,4.0,11.0,79,0.00,,,0.00,Wunderground v.1.15,2013-03-22 17:39:00,
2013-03-22 12:40:00,71.1,64.3,29.62,South,185,4.0,4.0,79,0.00,,,0.00,Wunderground v.1.15,2013-03-22 17:40:00,
2013-03-22 12:42:00,71.5,64.6,29.62,SSE,150,4.0,10.0,79,0.00,,,0.00,Wunderground v.1.15,2013-03-22 17:42:00,
2013-03-22 12:44:00,72.0,64.8,29.62,SSW,203,4.0,10.0,78,0.00,,,0.00,Wunderground v.1.15,2013-03-22 17:44:00,
2013-03-22 12:46:00,72.1,63.7,29.62,SW,215,4.0,10.0,75,0.00,,,0.00,Wunderground v.1.15,2013-03-22 17:46:00,
2013-03-22 12:49:00,72.3,63.9,29.62,WSW,243,4.0,10.0,75,0.00,,,0.00,Wunderground v.1.15,2013-03-22 17:49:00,
2013-03-22 12:51:00,72.5,64.1,29.62,WSW,237,4.0,4.0,75,0.00,,,0.00,Wunderground v.1.15,2013-03-22 17:51:00,
2013-03-22 12:55:00,73.0,64.2,29.62,South,174,3.0,12.0,74,0.00,,,0.00,Wunderground v.1.15,2013-03-22 17:55:00,
2013-03-22 12:56:00,73.2,64.0,29.62,SSW,193,3.0,12.0,73,0.00,,,0.00,Wunderground v.1.15,2013-03-22 17:56:00,
2013-03-22 12:57:00,73.3,63.7,29.62,ESE,120,3.0,12.0,72,0.00,,,0.00,Wunderground v.1.15,2013-03-22 17:57:00,
2013-03-22 12:59:00,73.5,63.5,29.62,South,189,3.0,12.0,71,0.00,,,0.00,Wunderground v.1.15,2013-03-22 17:59:00,
2013-03-22 13:02:00,73.7,63.3,29.61,WSW,254,4.0,10.0,70,0.00,,,0.00,Wunderground v.1.15,2013-03-22 18:02:00,
2013-03-22 13:04:00,73.9,63.9,29.61,WSW,241,4.0,10.0,71,0.00,,,0.00,Wunderground v.1.15,2013-03-22 18:04:00,
2013-03-22 13:09:00,74.4,64.0,29.61,SW,220,4.0,10.0,70,0.00,,,0.00,Wunderground v.1.15,2013-03-22 18:09:00,
2013-03-22 13:10:00,74.6,63.8,29.61,South,189,4.0,4.0,69,0.00,,,0.00,Wunderground v.1.15,2013-03-22 18:10:00,
2013-03-22 13:11:00,74.6,63.8,29.61,SSE,161,4.0,5.0,69,0.00,,,0.00,Wunderground v.1.15,2013-03-22 18:11:00,
2013-03-22 13:16:00,74.9,63.2,29.61,SW,233,4.0,10.0,67,0.00,,,0.00,Wunderground v.1.15,2013-03-22 18:16:00,
2013-03-22 13:17:00,74.7,63.4,29.61,SSW,212,4.0,10.0,68,0.00,,,0.00,Wunderground v.1.15,2013-03-22 18:17:00,
2013-03-22 13:21:00,74.7,63.4,29.61,SW,233,4.0,9.0,68,0.00,,,0.00,Wunderground v.1.15,2013-03-22 18:21:00,
2013-03-22 13:22:00,74.9,63.2,29.61,West,275,4.0,9.0,67,0.00,,,0.00,Wunderground v.1.15,2013-03-22 18:22:00,
2013-03-22 13:24:00,75.1,63.8,29.61,SSW,212,4.0,9.0,68,0.00,,,0.00,Wunderground v.1.15,2013-03-22 18:24:00,
2013-03-22 13:26:00,75.3,63.2,29.61,SW,220,4.0,9.0,66,0.00,,,0.00,Wunderground v.1.15,2013-03-22 18:26:00,
2013-03-22 13:29:00,75.6,63.4,29.61,SW,232,4.0,9.0,66,0.00,,,0.00,Wunderground v.1.15,2013-03-22 18:29:00,
2013-03-22 13:32:00,76.0,63.4,29.59,SW,236,5.0,11.0,65,0.00,,,0.00,Wunderground v.1.15,2013-03-22 18:32:00,
2013-03-22 13:35:00,76.1,63.0,29.59,SW,216,4.0,11.0,64,0.00,,,0.00,Wunderground v.1.15,2013-03-22 18:35:00,
2013-03-22 13:38:00,76.7,63.6,29.59,SSW,195,4.0,11.0,64,0.00,,,0.00,Wunderground v.1.15,2013-03-22 18:38:00,
2013-03-22 13:40:00,77.2,63.2,29.59,SE,144,4.0,12.0,62,0.00,,,0.00,Wunderground v.1.15,2013-03-22 18:40:00,
2013-03-22 13:43:00,76.8,62.8,29.59,SSW,199,4.0,12.0,62,0.00,,,0.00,Wunderground v.1.15,2013-03-22 18:43:00,
2013-03-22 13:44:00,76.8,62.8,29.59,SSW,208,5.0,12.0,62,0.00,,,0.00,Wunderground v.1.15,2013-03-22 18:44:00,
2013-03-22 13:48:00,76.8,62.8,29.59,South,188,4.0,12.0,62,0.00,,,0.00,Wunderground v.1.15,2013-03-22 18:48:00,
2013-03-22 13:50:00,77.0,63.4,29.59,SSW,192,5.0,9.0,63,0.00,,,0.00,Wunderground v.1.15,2013-03-22 18:50:00,
2013-03-22 13:54:00,77.7,63.6,29.59,SSW,206,4.0,9.0,62,0.00,,,0.00,Wunderground v.1.15,2013-03-22 18:54:00,
2013-03-22 13:55:00,77.9,63.4,29.59,SSW,196,3.0,9.0,61,0.00,,,0.00,Wunderground v.1.15,2013-03-22 18:55:00,
2013-03-22 13:58:00,78.1,63.1,29.59,West,261,3.0,9.0,60,0.00,,,0.00,Wunderground v.1.15,2013-03-22 18:58:00,
2013-03-22 14:02:00,78.3,62.8,29.58,SSW,200,4.0,10.0,59,0.00,,,0.00,Wunderground v.1.15,2013-03-22 19:02:00,
2013-03-22 14:03:00,78.5,63.0,29.58,SSW,200,3.0,10.0,59,0.00,,,0.00,Wunderground v.1.15,2013-03-22 19:03:00,
2013-03-22 14:07:00,78.8,62.8,29.58,SSW,195,3.0,10.0,58,0.00,,,0.00,Wunderground v.1.15,2013-03-22 19:07:00,
2013-03-22 14:08:00,78.8,62.8,29.58,South,181,3.0,10.0,58,0.00,,,0.00,Wunderground v.1.15,2013-03-22 19:08:00,
2013-03-22 14:10:00,79.0,63.0,29.58,South,184,2.0,2.0,58,0.00,,,0.00,Wunderground v.1.15,2013-03-22 19:10:00,
2013-03-22 14:12:00,79.0,63.0,29.58,WSW,243,2.0,10.0,58,0.00,,,0.00,Wunderground v.1.15,2013-03-22 19:12:00,
2013-03-22 14:13:00,79.0,63.0,29.58,WSW,243,2.0,10.0,58,0.00,,,0.00,Wunderground v.1.15,2013-03-22 19:13:00,
2013-03-22 14:18:00,79.4,63.3,29.57,South,191,2.0,10.0,58,0.00,,,0.00,Wunderground v.1.15,2013-03-22 19:18:00,
2013-03-22 14:19:00,79.6,63.5,29.57,SSW,192,2.0,10.0,58,0.00,,,0.00,Wunderground v.1.15,2013-03-22 19:19:00,
2013-03-22 14:22:00,79.9,62.8,29.57,SSW,192,2.0,11.0,56,0.00,,,0.00,Wunderground v.1.15,2013-03-22 19:22:00,
2013-03-22 14:24:00,80.1,62.5,29.57,West,267,2.0,11.0,55,0.00,,,0.00,Wunderground v.1.15,2013-03-22 19:24:00,
2013-03-22 14:25:00,80.1,63.0,29.57,SW,220,2.0,11.0,56,0.00,,,0.00,Wunderground v.1.15,2013-03-22 19:25:00,
2013-03-22 14:27:00,80.3,63.7,29.57,SSE,161,2.0,11.0,57,0.00,,,0.00,Wunderground v.1.15,2013-03-22 19:27:00,
2013-03-22 14:31:00,80.5,62.8,29.56,SSE,147,3.0,10.0,55,0.00,,,0.00,Wunderground v.1.15,2013-03-22 19:31:00,
2013-03-22 14:33:00,80.1,62.0,29.56,SE,145,4.0,10.0,54,0.00,,,0.00,Wunderground v.1.15,2013-03-22 19:33:00,
2013-03-22 14:35:00,79.9,62.3,29.56,SSE,154,4.0,10.0,55,0.00,,,0.00,Wunderground v.1.15,2013-03-22 19:35:00,
2013-03-22 14:37:00,79.4,61.8,29.56,SE,145,5.0,10.0,55,0.00,,,0.00,Wunderground v.1.15,2013-03-22 19:37:00,
2013-03-22 14:38:00,79.4,61.8,29.56,SE,124,5.0,10.0,55,0.00,,,0.00,Wunderground v.1.15,2013-03-22 19:38:00,
2013-03-22 14:40:00,79.6,62.0,29.56,SW,222,4.0,9.0,55,0.00,,,0.00,Wunderground v.1.15,2013-03-22 19:40:00,
2013-03-22 14:44:00,80.1,62.0,29.56,SSW,210,4.0,9.0,54,0.00,,,0.00,Wunderground v.1.15,2013-03-22 19:44:00,
2013-03-22 14:46:00,80.5,61.8,29.56,SSW,200,3.0,9.0,53,0.00,,,0.00,Wunderground v.1.15,2013-03-22 19:46:00,
2013-03-22 14:47:00,80.5,61.8,29.56,SSE,168,3.0,9.0,53,0.00,,,0.00,Wunderground v.1.15,2013-03-22 19:47:00,
2013-03-22 14:49:00,80.3,61.1,29.56,SSE,162,3.0,9.0,52,0.00,,,0.00,Wunderground v.1.15,2013-03-22 19:49:00,
2013-03-22 14:51:00,80.3,61.6,29.56,South,171,3.0,13.0,53,0.00,,,0.00,Wunderground v.1.15,2013-03-22 19:51:00,
2013-03-22 14:52:00,80.5,61.8,29.56,SSW,205,3.0,13.0,53,0.00,,,0.00,Wunderground v.1.15,2013-03-22 19:52:00,
2013-03-22 14:54:00,80.5,61.8,29.56,SSW,205,3.0,13.0,53,0.00,,,0.00,Wunderground v.1.15,2013-03-22 19:54:00,
2013-03-22 14:56:00,80.7,62.0,29.56,SSW,206,2.0,13.0,53,0.00,,,0.00,Wunderground v.1.15,2013-03-22 19:56:00,
2013-03-22 14:58:00,80.9,61.6,29.56,SSW,206,2.0,13.0,52,0.00,,,0.00,Wunderground v.1.15,2013-03-22 19:58:00,
2013-03-22 15:02:00,81.4,62.1,29.55,WSW,258,2.0,9.0,52,0.00,,,0.00,Wunderground v.1.15,2013-03-22 20:02:00,
2013-03-22 15:03:00,81.2,61.9,29.55,WSW,250,2.0,9.0,52,0.00,,,0.00,Wunderground v.1.15,2013-03-22 20:03:00,
2013-03-22 15:06:00,81.6,62.8,29.55,SSW,203,2.0,9.0,53,0.00,,,0.00,Wunderground v.1.15,2013-03-22 20:06:00,
2013-03-22 15:11:00,81.8,62.5,29.55,SSW,210,3.0,8.0,52,0.00,,,0.00,Wunderground v.1.15,2013-03-22 20:11:00,
2013-03-22 15:16:00,82.4,62.5,29.54,WSW,256,3.0,8.0,51,0.00,,,0.00,Wunderground v.1.15,2013-03-22 20:16:00,
2013-03-22 15:17:00,82.4,61.9,29.54,SW,215,4.0,8.0,50,0.00,,,0.00,Wunderground v.1.15,2013-03-22 20:17:00,
2013-03-22 15:19:00,82.4,61.9,29.54,WSW,251,4.0,8.0,50,0.00,,,0.00,Wunderground v.1.15,2013-03-22 20:19:00,
2013-03-22 15:21:00,82.2,61.7,29.54,SSW,208,4.0,4.0,50,0.00,,,0.00,Wunderground v.1.15,2013-03-22 20:21:00,
2013-03-22 15:23:00,82.2,61.7,29.54,SW,216,4.0,7.0,50,0.00,,,0.00,Wunderground v.1.15,2013-03-22 20:23:00,
2013-03-22 15:26:00,82.2,61.7,29.54,West,260,5.0,7.0,50,0.00,,,0.00,Wunderground v.1.15,2013-03-22 20:26:00,
2013-03-22 15:27:00,82.2,62.3,29.54,WSW,258,4.0,7.0,51,0.00,,,0.00,Wunderground v.1.15,2013-03-22 20:27:00,
2013-03-22 15:31:00,82.2,61.1,29.54,West,271,4.0,11.0,49,0.00,,,0.00,Wunderground v.1.15,2013-03-22 20:31:00,
2013-03-22 15:33:00,82.2,61.1,29.54,NW,304,4.0,11.0,49,0.00,,,0.00,Wunderground v.1.15,2013-03-22 20:33:00,
2013-03-22 15:34:00,82.0,61.0,29.54,West,271,4.0,11.0,49,0.00,,,0.00,Wunderground v.1.15,2013-03-22 20:34:00,
2013-03-22 15:39:00,82.2,61.1,29.54,WSW,244,5.0,11.0,49,0.00,,,0.00,Wunderground v.1.15,2013-03-22 20:39:00,
2013-03-22 15:40:00,82.4,60.7,29.54,WSW,246,4.0,11.0,48,0.00,,,0.00,Wunderground v.1.15,2013-03-22 20:40:00,
2013-03-22 15:42:00,82.4,61.3,29.54,SSW,208,4.0,9.0,49,0.00,,,0.00,Wunderground v.1.15,2013-03-22 20:42:00,
2013-03-22 15:45:00,82.6,60.9,29.54,SSW,210,4.0,9.0,48,0.00,,,0.00,Wunderground v.1.15,2013-03-22 20:45:00,
2013-03-22 15:50:00,83.2,60.3,29.53,SW,217,2.0,11.0,46,0.00,,,0.00,Wunderground v.1.15,2013-03-22 20:50:00,
2013-03-22 15:51:00,83.2,60.3,29.53,SW,217,2.0,2.0,46,0.00,,,0.00,Wunderground v.1.15,2013-03-22 20:51:00,
2013-03-22 15:52:00,83.4,60.4,29.53,SW,217,2.0,11.0,46,0.00,,,0.00,Wunderground v.1.15,2013-03-22 20:52:00,
2013-03-22 15:53:00,83.6,60.0,29.53,South,176,2.0,11.0,45,0.00,,,0.00,Wunderground v.1.15,2013-03-22 20:53:00,
2013-03-22 15:58:00,83.6,59.4,29.53,South,176,1.0,11.0,44,0.00,,,0.00,Wunderground v.1.15,2013-03-22 20:58:00,
2013-03-22 15:59:00,83.8,60.2,29.53,South,176,1.0,11.0,45,0.00,,,0.00,Wunderground v.1.15,2013-03-22 20:59:00,
2013-03-22 16:01:00,83.8,60.8,29.52,South,176,1.0,1.0,46,0.00,,,0.00,Wunderground v.1.15,2013-03-22 21:01:00,
2013-03-22 16:05:00,84.3,60.6,29.52,South,176,0.0,8.0,45,0.00,,,0.00,Wunderground v.1.15,2013-03-22 21:05:00,
2013-03-22 16:07:00,84.3,60.6,29.52,SW,229,1.0,8.0,45,0.00,,,0.00,Wunderground v.1.15,2013-03-22 21:07:00,
2013-03-22 16:11:00,84.7,61.0,29.52,SW,224,1.0,7.0,45,0.00,,,0.00,Wunderground v.1.15,2013-03-22 21:11:00,
2013-03-22 16:12:00,84.7,61.0,29.52,SW,224,1.0,7.0,45,0.00,,,0.00,Wunderground v.1.15,2013-03-22 21:12:00,
2013-03-22 16:15:00,85.1,60.1,29.52,South,185,1.0,7.0,43,0.00,,,0.00,Wunderground v.1.15,2013-03-22 21:15:00,
2013-03-22 16:16:00,84.9,59.9,29.52,South,185,1.0,7.0,43,0.00,,,0.00,Wunderground v.1.15,2013-03-22 21:16:00,
2013-03-22 16:17:00,84.9,59.9,29.52,South,185,1.0,7.0,43,0.00,,,0.00,Wunderground v.1.15,2013-03-22 21:17:00,
2013-03-22 16:19:00,84.9,60.6,29.52,South,185,1.0,7.0,44,0.00,,,0.00,Wunderground v.1.15,2013-03-22 21:19:00,
2013-03-22 16:20:00,84.9,59.9,29.52,South,185,1.0,7.0,43,0.00,,,0.00,Wunderground v.1.15,2013-03-22 21:20:00,
2013-03-22 16:24:00,85.3,59.6,29.52,South,185,1.0,7.0,42,0.00,,,0.00,Wunderground v.1.15,2013-03-22 21:24:00,
2013-03-22 16:26:00,84.9,58.6,29.52,SSE,161,2.0,7.0,41,0.00,,,0.00,Wunderground v.1.15,2013-03-22 21:26:00,
2013-03-22 16:27:00,84.5,58.9,29.52,SSE,161,2.0,7.0,42,0.00,,,0.00,Wunderground v.1.15,2013-03-22 21:27:00,
2013-03-22 16:31:00,84.7,59.7,29.52,SSE,165,2.0,7.0,43,0.00,,,0.00,Wunderground v.1.15,2013-03-22 21:31:00,
2013-03-22 16:32:00,84.7,60.4,29.52,SSE,165,2.0,6.0,44,0.00,,,0.00,Wunderground v.1.15,2013-03-22 21:32:00,
2013-03-22 16:33:00,84.9,59.9,29.52,SSE,165,2.0,6.0,43,0.00,,,0.00,Wunderground v.1.15,2013-03-22 21:33:00,
2013-03-22 16:37:00,85.5,59.1,29.52,South,189,1.0,6.0,41,0.00,,,0.00,Wunderground v.1.15,2013-03-22 21:37:00,
2013-03-22 16:39:00,85.1,59.4,29.52,South,186,2.0,7.0,42,0.00,,,0.00,Wunderground v.1.15,2013-03-22 21:39:00,
2013-03-22 16:41:00,84.7,59.7,29.52,SSE,152,2.0,8.0,43,0.00,,,0.00,Wunderground v.1.15,2013-03-22 21:41:00,
2013-03-22 16:42:00,84.3,59.4,29.52,SSE,155,3.0,8.0,43,0.00,,,0.00,Wunderground v.1.15,2013-03-22 21:42:00,
2013-03-22 16:47:00,83.6,60.0,29.52,ENE,78,3.0,8.0,45,0.00,,,0.00,Wunderground v.1.15,2013-03-22 21:47:00,
2013-03-22 16:48:00,83.6,60.0,29.52,ENE,78,3.0,8.0,45,0.00,,,0.00,Wunderground v.1.15,2013-03-22 21:48:00,
2013-03-22 16:51:00,83.6,59.4,29.52,East,85,3.0,8.0,44,0.00,,,0.00,Wunderground v.1.15,2013-03-22 21:51:00,
2013-03-22 16:54:00,83.8,59.6,29.52,SE,124,3.0,8.0,44,0.00,,,0.00,Wunderground v.1.15,2013-03-22 21:54:00,
2013-03-22 16:56:00,83.8,58.9,29.52,SE,136,3.0,8.0,43,0.00,,,0.00,Wunderground v.1.15,2013-03-22 21:56:00,
2013-03-22 16:57:00,83.8,58.3,29.52,SE,130,3.0,8.0,42,0.00,,,0.00,Wunderground v.1.15,2013-03-22 21:57:00,
2013-03-22 16:58:00,83.8,58.3,29.52,SE,128,3.0,8.0,42,0.00,,,0.00,Wunderground v.1.15,2013-03-22 21:58:00,
2013-03-22 17:01:00,83.6,58.1,29.52,SE,133,3.0,3.0,42,0.00,,,0.00,Wunderground v.1.15,2013-03-22 22:01:00,
2013-03-22 17:03:00,83.8,58.3,29.52,SE,144,4.0,9.0,42,0.00,,,0.00,Wunderground v.1.15,2013-03-22 22:03:00,
2013-03-22 17:04:00,83.8,58.3,29.52,ESE,107,4.0,9.0,42,0.00,,,0.00,Wunderground v.1.15,2013-03-22 22:04:00,
2013-03-22 17:08:00,83.8,57.6,29.52,ESE,102,3.0,9.0,41,0.00,,,0.00,Wunderground v.1.15,2013-03-22 22:08:00,
2013-03-22 17:09:00,83.8,58.3,29.52,ESE,102,3.0,9.0,42,0.00,,,0.00,Wunderground v.1.15,2013-03-22 22:09:00,
2013-03-22 17:13:00,84.0,58.4,29.52,SSE,164,3.0,10.0,42,0.00,,,0.00,Wunderground v.1.15,2013-03-22 22:13:00,
2013-03-22 17:14:00,83.8,57.6,29.52,SSE,164,2.0,10.0,41,0.00,,,0.00,Wunderground v.1.15,2013-03-22 22:14:00,
2013-03-22 17:15:00,84.0,57.8,29.52,SSE,164,2.0,10.0,41,0.00,,,0.00,Wunderground v.1.15,2013-03-22 22:15:00,
2013-03-22 17:21:00,84.7,58.4,29.51,SSE,165,1.0,8.0,41,0.00,,,0.00,Wunderground v.1.15,2013-03-22 22:21:00,
2013-03-22 17:23:00,85.1,58.1,29.51,SSE,165,1.0,8.0,40,0.00,,,0.00,Wunderground v.1.15,2013-03-22 22:23:00,
2013-03-22 17:24:00,85.5,57.7,29.51,SSE,165,0.0,8.0,39,0.00,,,0.00,Wunderground v.1.15,2013-03-22 22:24:00,
2013-03-22 17:25:00,85.7,57.2,29.51,SSE,164,0.0,8.0,38,0.00,,,0.00,Wunderground v.1.15,2013-03-22 22:25:00,
2013-03-22 17:29:00,85.9,57.3,29.51,ESE,102,1.0,8.0,38,0.00,,,0.00,Wunderground v.1.15,2013-03-22 22:29:00,
2013-03-22 17:34:00,84.7,57.0,29.50,ESE,109,2.0,6.0,39,0.00,,,0.00,Wunderground v.1.15,2013-03-22 22:34:00,
2013-03-22 17:35:00,84.5,56.8,29.50,ESE,109,2.0,6.0,39,0.00,,,0.00,Wunderground v.1.15,2013-03-22 22:35:00,
2013-03-22 17:36:00,84.5,56.8,29.50,ESE,109,2.0,6.0,39,0.00,,,0.00,Wunderground v.1.15,2013-03-22 22:36:00,
2013-03-22 17:41:00,85.1,56.6,29.50,SSE,157,2.0,7.0,38,0.00,,,0.00,Wunderground v.1.15,2013-03-22 22:41:00,
2013-03-22 17:42:00,84.9,57.2,29.50,SSE,157,2.0,7.0,39,0.00,,,0.00,Wunderground v.1.15,2013-03-22 22:42:00,
2013-03-22 17:45:00,85.1,57.4,29.50,SSE,160,1.0,7.0,39,0.00,,,0.00,Wunderground v.1.15,2013-03-22 22:45:00,
2013-03-22 17:48:00,84.9,57.2,29.51,ESE,114,2.0,7.0,39,0.00,,,0.00,Wunderground v.1.15,2013-03-22 22:48:00,
2013-03-22 17:51:00,84.7,56.3,29.51,ESE,119,2.0,2.0,38,0.00,,,0.00,Wunderground v.1.15,2013-03-22 22:51:00,
2013-03-22 17:53:00,84.5,56.8,29.51,ESE,121,2.0,7.0,39,0.00,,,0.00,Wunderground v.1.15,2013-03-22 22:53:00,
2013-03-22 17:54:00,84.5,56.1,29.51,ESE,121,2.0,7.0,38,0.00,,,0.00,Wunderground v.1.15,2013-03-22 22:54:00,
2013-03-22 17:58:00,84.9,56.5,29.51,SE,124,1.0,7.0,38,0.00,,,0.00,Wunderground v.1.15,2013-03-22 22:58:00,
2013-03-22 17:59:00,84.7,57.0,29.51,SE,137,1.0,7.0,39,0.00,,,0.00,Wunderground v.1.15,2013-03-22 22:59:00,
2013-03-22 18:02:00,84.7,57.7,29.51,SE,136,2.0,7.0,40,0.00,,,0.00,Wunderground v.1.15,2013-03-22 23:02:00,
2013-03-22 18:04:00,84.5,58.2,29.51,SSE,147,2.0,7.0,41,0.00,,,0.00,Wunderground v.1.15,2013-03-22 23:04:00,
2013-03-22 18:05:00,84.7,58.4,29.51,SSW,195,2.0,8.0,41,0.00,,,0.00,Wunderground v.1.15,2013-03-22 23:05:00,
2013-03-22 18:07:00,84.5,58.2,29.51,SSE,157,3.0,8.0,41,0.00,,,0.00,Wunderground v.1.15,2013-03-22 23:07:00,
2013-03-22 18:12:00,85.1,58.1,29.51,WSW,241,2.0,11.0,40,0.00,,,0.00,Wunderground v.1.15,2013-03-22 23:12:00,
2013-03-22 18:13:00,85.3,58.2,29.51,WSW,241,1.0,11.0,40,0.00,,,0.00,Wunderground v.1.15,2013-03-22 23:13:00,
2013-03-22 18:14:00,85.5,57.7,29.51,SSW,209,1.0,11.0,39,0.00,,,0.00,Wunderground v.1.15,2013-03-22 23:14:00,
2013-03-22 18:17:00,85.1,58.1,29.51,SE,137,1.0,11.0,40,0.00,,,0.00,Wunderground v.1.15,2013-03-22 23:17:00,
2013-03-22 18:18:00,85.1,58.1,29.51,SE,136,2.0,11.0,40,0.00,,,0.00,Wunderground v.1.15,2013-03-22 23:18:00,
2013-03-22 18:19:00,84.9,58.6,29.51,SE,136,2.0,11.0,41,0.00,,,0.00,Wunderground v.1.15,2013-03-22 23:19:00,
2013-03-22 18:21:00,85.1,58.8,29.51,SE,128,1.0,8.0,41,0.00,,,0.00,Wunderground v.1.15,2013-03-22 23:21:00,
2013-03-22 18:24:00,85.1,58.8,29.51,SE,127,2.0,8.0,41,0.00,,,0.00,Wunderground v.1.15,2013-03-22 23:24:00,
2013-03-22 18:26:00,85.1,58.8,29.51,ESE,107,1.0,8.0,41,0.00,,,0.00,Wunderground v.1.15,2013-03-22 23:26:00,
2013-03-22 18:27:00,84.9,57.9,29.51,East,96,2.0,8.0,40,0.00,,,0.00,Wunderground v.1.15,2013-03-22 23:27:00,
2013-03-22 18:29:00,84.5,58.2,29.51,ESE,116,2.0,8.0,41,0.00,,,0.00,Wunderground v.1.15,2013-03-22 23:29:00,
2013-03-22 18:32:00,84.3,58.0,29.51,ESE,106,3.0,7.0,41,0.00,,,0.00,Wunderground v.1.15,2013-03-22 23:32:00,
2013-03-22 18:33:00,84.3,57.3,29.51,ESE,114,4.0,7.0,40,0.00,,,0.00,Wunderground v.1.15,2013-03-22 23:33:00,
2013-03-22 18:34:00,84.1,57.2,29.51,ESE,120,4.0,7.0,40,0.00,,,0.00,Wunderground v.1.15,2013-03-22 23:34:00,
2013-03-22 18:35:00,84.1,57.2,29.51,East,96,5.0,7.0,40,0.00,,,0.00,Wunderground v.1.15,2013-03-22 23:35:00,
2013-03-22 18:38:00,84.1,57.2,29.51,East,96,4.0,7.0,40,0.00,,,0.00,Wunderground v.1.15,2013-03-22 23:38:00,
2013-03-22 18:40:00,84.0,57.8,29.51,ESE,107,4.0,10.0,41,0.00,,,0.00,Wunderground v.1.15,2013-03-22 23:40:00,
2013-03-22 18:41:00,84.0,57.8,29.51,East,88,3.0,3.0,41,0.00,,,0.00,Wunderground v.1.15,2013-03-22 23:41:00,
2013-03-22 18:44:00,84.0,57.1,29.51,SE,124,3.0,10.0,40,0.00,,,0.00,Wunderground v.1.15,2013-03-22 23:44:00,
2013-03-22 18:45:00,84.0,57.1,29.51,ESE,123,3.0,10.0,40,0.00,,,0.00,Wunderground v.1.15,2013-03-22 23:45:00,
2013-03-22 18:47:00,83.8,56.9,29.51,ESE,107,3.0,10.0,40,0.00,,,0.00,Wunderground v.1.15,2013-03-22 23:47:00,
2013-03-22 18:51:00,83.8,56.9,29.51,ESE,106,3.0,10.0,40,0.00,,,0.00,Wunderground v.1.15,2013-03-22 23:51:00,
2013-03-22 18:52:00,83.8,56.9,29.51,East,95,4.0,9.0,40,0.00,,,0.00,Wunderground v.1.15,2013-03-22 23:52:00,
2013-03-22 18:53:00,83.6,56.7,29.51,ESE,102,4.0,9.0,40,0.00,,,0.00,Wunderground v.1.15,2013-03-22 23:53:00,
2013-03-22 18:57:00,83.6,56.7,29.51,ESE,102,3.0,9.0,40,0.00,,,0.00,Wunderground v.1.15,2013-03-22 23:57:00,
2013-03-22 18:59:00,83.6,56.7,29.51,ESE,103,2.0,9.0,40,0.00,,,0.00,Wunderground v.1.15,2013-03-22 23:59:00,
2013-03-22 19:02:00,83.4,57.2,29.51,ESE,102,2.0,8.0,41,0.00,,,0.00,Wunderground v.1.15,2013-03-23 00:02:00,
2013-03-22 19:03:00,83.4,57.2,29.51,ESE,103,2.0,8.0,41,0.00,,,0.00,Wunderground v.1.15,2013-03-23 00:03:00,
2013-03-22 19:05:00,83.4,57.2,29.51,ESE,102,2.0,8.0,41,0.00,,,0.00,Wunderground v.1.15,2013-03-23 00:05:00,
2013-03-22 19:08:00,83.2,57.1,29.51,East,99,2.0,8.0,41,0.00,,,0.00,Wunderground v.1.15,2013-03-23 00:08:00,
2013-03-22 19:11:00,83.2,57.7,29.51,East,99,1.0,1.0,42,0.00,,,0.00,Wunderground v.1.15,2013-03-23 00:11:00,
2013-03-22 19:12:00,83.2,57.7,29.51,East,99,1.0,6.0,42,0.00,,,0.00,Wunderground v.1.15,2013-03-23 00:12:00,
2013-03-22 19:13:00,83.2,57.7,29.51,East,99,1.0,6.0,42,0.00,,,0.00,Wunderground v.1.15,2013-03-23 00:13:00,
2013-03-22 19:15:00,83.0,57.5,29.51,East,86,1.0,6.0,42,0.00,,,0.00,Wunderground v.1.15,2013-03-23 00:15:00,
2013-03-22 19:17:00,82.8,57.4,29.51,East,86,1.0,6.0,42,0.00,,,0.00,Wunderground v.1.15,2013-03-23 00:17:00,
2013-03-22 19:18:00,82.8,57.4,29.51,East,86,1.0,6.0,42,0.00,,,0.00,Wunderground v.1.15,2013-03-23 00:18:00,
2013-03-22 19:19:00,82.8,57.4,29.51,East,88,1.0,6.0,42,0.00,,,0.00,Wunderground v.1.15,2013-03-23 00:19:00,
2013-03-22 19:22:00,82.6,57.8,29.51,East,88,2.0,5.0,43,0.00,,,0.00,Wunderground v.1.15,2013-03-23 00:22:00,
2013-03-22 19:23:00,82.6,57.8,29.51,East,88,2.0,5.0,43,0.00,,,0.00,Wunderground v.1.15,2013-03-23 00:23:00,
2013-03-22 19:25:00,82.4,57.7,29.51,East,88,2.0,5.0,43,0.00,,,0.00,Wunderground v.1.15,2013-03-23 00:25:00,
2013-03-22 19:27:00,82.4,57.7,29.51,East,88,2.0,5.0,43,0.00,,,0.00,Wunderground v.1.15,2013-03-23 00:27:00,
2013-03-22 19:28:00,82.4,58.3,29.51,East,88,2.0,5.0,44,0.00,,,0.00,Wunderground v.1.15,2013-03-23 00:28:00,
2013-03-22 19:29:00,82.4,58.3,29.51,East,88,2.0,5.0,44,0.00,,,0.00,Wunderground v.1.15,2013-03-23 00:29:00,
2013-03-22 19:30:00,82.2,58.1,29.51,East,88,1.0,6.0,44,0.00,,,0.00,Wunderground v.1.15,2013-03-23 00:30:00,
2013-03-22 19:33:00,82.2,58.7,29.52,East,92,1.0,6.0,45,0.00,,,0.00,Wunderground v.1.15,2013-03-23 00:33:00,
2013-03-22 19:35:00,82.0,58.6,29.52,East,93,1.0,6.0,45,0.00,,,0.00,Wunderground v.1.15,2013-03-23 00:35:00,
2013-03-22 19:39:00,81.6,58.8,29.52,East,93,1.0,6.0,46,0.00,,,0.00,Wunderground v.1.15,2013-03-23 00:39:00,
2013-03-22 19:41:00,81.6,58.8,29.52,East,93,1.0,6.0,46,0.00,,,0.00,Wunderground v.1.15,2013-03-23 00:41:00,
2013-03-22 19:44:00,81.4,59.2,29.52,East,95,1.0,6.0,47,0.00,,,0.00,Wunderground v.1.15,2013-03-23 00:44:00,
2013-03-22 19:47:00,81.1,59.0,29.53,East,92,1.0,6.0,47,0.00,,,0.00,Wunderground v.1.15,2013-03-23 00:47:00,
2013-03-22 19:49:00,80.9,59.4,29.53,East,92,1.0,6.0,48,0.00,,,0.00,Wunderground v.1.15,2013-03-23 00:49:00,
2013-03-22 19:54:00,80.5,59.6,29.53,East,93,1.0,6.0,49,0.00,,,0.00,Wunderground v.1.15,2013-03-23 00:54:00,
2013-03-22 19:55:00,80.5,59.6,29.53,East,93,1.0,6.0,49,0.00,,,0.00,Wunderground v.1.15,2013-03-23 00:55:00,
2013-03-22 19:56:00,80.3,59.4,29.53,East,93,1.0,6.0,49,0.00,,,0.00,Wunderground v.1.15,2013-03-23 00:56:00,
2013-03-22 20:01:00,79.9,59.6,29.53,East,93,1.0,3.0,50,0.00,,,0.00,Wunderground v.1.15,2013-03-23 01:01:00,
2013-03-22 20:03:00,79.8,59.5,29.53,East,93,1.0,3.0,50,0.00,,,0.00,Wunderground v.1.15,2013-03-23 01:03:00,
2013-03-22 20:06:00,79.6,59.3,29.53,East,93,1.0,3.0,50,0.00,,,0.00,Wunderground v.1.15,2013-03-23 01:06:00,
2013-03-22 20:07:00,79.6,59.3,29.53,East,93,1.0,3.0,50,0.00,,,0.00,Wunderground v.1.15,2013-03-23 01:07:00,
2013-03-22 20:11:00,79.4,59.7,29.53,East,93,1.0,1.0,51,0.00,,,0.00,Wunderground v.1.15,2013-03-23 01:11:00,
2013-03-22 20:12:00,79.2,59.5,29.53,East,93,1.0,3.0,51,0.00,,,0.00,Wunderground v.1.15,2013-03-23 01:12:00,
2013-03-22 20:13:00,79.2,59.5,29.53,East,93,1.0,3.0,51,0.00,,,0.00,Wunderground v.1.15,2013-03-23 01:13:00,
2013-03-22 20:17:00,78.8,59.7,29.53,East,93,0.0,3.0,52,0.00,,,0.00,Wunderground v.1.15,2013-03-23 01:17:00,
2013-03-22 20:19:00,78.8,59.7,29.53,East,93,0.0,3.0,52,0.00,,,0.00,Wunderground v.1.15,2013-03-23 01:19:00,
2013-03-22 20:22:00,78.6,59.5,29.53,SE,126,1.0,14.0,52,0.00,,,0.00,Wunderground v.1.15,2013-03-23 01:22:00,
2013-03-22 20:24:00,78.6,60.6,29.53,ESE,107,3.0,14.0,54,0.00,,,0.00,Wunderground v.1.15,2013-03-23 01:24:00,
2013-03-22 20:25:00,78.5,60.5,29.53,SE,134,3.0,14.0,54,0.00,,,0.00,Wunderground v.1.15,2013-03-23 01:25:00,
2013-03-22 20:27:00,78.5,61.0,29.53,SE,127,4.0,14.0,55,0.00,,,0.00,Wunderground v.1.15,2013-03-23 01:27:00,
2013-03-22 20:31:00,78.1,62.1,29.53,SE,145,6.0,17.0,58,0.00,,,0.00,Wunderground v.1.15,2013-03-23 01:31:00,
2013-03-22 20:34:00,77.9,62.9,29.54,ESE,116,5.0,17.0,60,0.00,,,0.00,Wunderground v.1.15,2013-03-23 01:34:00,
2013-03-22 20:35:00,77.9,63.4,29.54,SE,134,5.0,17.0,61,0.00,,,0.00,Wunderground v.1.15,2013-03-23 01:35:00,
2013-03-22 20:36:00,77.9,63.4,29.54,SSE,155,5.0,17.0,61,0.00,,,0.00,Wunderground v.1.15,2013-03-23 01:36:00,
2013-03-22 20:39:00,77.7,63.6,29.54,SE,143,5.0,17.0,62,0.00,,,0.00,Wunderground v.1.15,2013-03-23 01:39:00,
2013-03-22 20:41:00,77.6,64.5,29.54,SE,126,6.0,18.0,64,0.00,,,0.00,Wunderground v.1.15,2013-03-23 01:41:00,
2013-03-22 20:42:00,77.6,64.5,29.54,SE,127,6.0,18.0,64,0.00,,,0.00,Wunderground v.1.15,2013-03-23 01:42:00,
2013-03-22 20:43:00,77.4,64.7,29.54,ESE,121,7.0,18.0,65,0.00,,,0.00,Wunderground v.1.15,2013-03-23 01:43:00,
2013-03-22 20:45:00,77.4,64.7,29.54,ESE,120,7.0,18.0,65,0.00,,,0.00,Wunderground v.1.15,2013-03-23 01:45:00,
2013-03-22 20:47:00,77.2,65.0,29.56,SE,127,7.0,18.0,66,0.00,,,0.00,Wunderground v.1.15,2013-03-23 01:47:00,
2013-03-22 20:51:00,76.8,64.6,29.56,SSE,150,7.0,18.0,66,0.00,,,0.00,Wunderground v.1.15,2013-03-23 01:51:00,
2013-03-22 20:52:00,76.8,65.0,29.56,SE,131,6.0,17.0,67,0.00,,,0.00,Wunderground v.1.15,2013-03-23 01:52:00,
2013-03-22 20:56:00,76.5,64.7,29.56,East,99,6.0,17.0,67,0.00,,,0.00,Wunderground v.1.15,2013-03-23 01:56:00,
2013-03-22 20:57:00,76.5,65.1,29.56,SE,127,7.0,17.0,68,0.00,,,0.00,Wunderground v.1.15,2013-03-23 01:57:00,
2013-03-22 20:58:00,76.5,65.1,29.56,SE,124,7.0,17.0,68,0.00,,,0.00,Wunderground v.1.15,2013-03-23 01:58:00,
2013-03-22 21:03:00,76.1,65.2,29.57,SE,134,7.0,12.0,69,0.00,,,0.00,Wunderground v.1.15,2013-03-23 02:03:00,
2013-03-22 21:05:00,76.0,65.1,29.57,SE,130,7.0,12.0,69,0.00,,,0.00,Wunderground v.1.15,2013-03-23 02:05:00,
2013-03-22 21:06:00,76.0,65.1,29.57,SSE,154,6.0,12.0,69,0.00,,,0.00,Wunderground v.1.15,2013-03-23 02:06:00,
2013-03-22 21:09:00,75.8,64.9,29.57,SE,143,5.0,12.0,69,0.00,,,0.00,Wunderground v.1.15,2013-03-23 02:09:00,
2013-03-22 21:13:00,75.6,65.5,29.57,ESE,109,6.0,14.0,71,0.00,,,0.00,Wunderground v.1.15,2013-03-23 02:13:00,
2013-03-22 21:14:00,75.4,65.3,29.57,SE,141,6.0,14.0,71,0.00,,,0.00,Wunderground v.1.15,2013-03-23 02:14:00,
2013-03-22 21:19:00,74.9,65.3,29.58,South,169,9.0,14.0,72,0.00,,,0.00,Wunderground v.1.15,2013-03-23 02:19:00,
2013-03-22 21:21:00,74.9,65.7,29.58,SE,133,8.0,14.0,73,0.00,,,0.00,Wunderground v.1.15,2013-03-23 02:21:00,
2013-03-22 21:24:00,74.7,65.5,29.58,SE,131,7.0,13.0,73,0.00,,,0.00,Wunderground v.1.15,2013-03-23 02:24:00,
2013-03-22 21:26:00,74.6,65.4,29.58,SE,131,6.0,13.0,73,0.00,,,0.00,Wunderground v.1.15,2013-03-23 02:26:00,
2013-03-22 21:31:00,74.6,65.8,29.59,SE,133,4.0,17.0,74,0.00,,,0.00,Wunderground v.1.15,2013-03-23 02:31:00,
2013-03-22 21:34:00,74.4,65.6,29.59,SE,133,3.0,17.0,74,0.00,,,0.00,Wunderground v.1.15,2013-03-23 02:34:00,
2013-03-22 21:36:00,74.2,65.4,29.59,SE,133,3.0,17.0,74,0.00,,,0.00,Wunderground v.1.15,2013-03-23 02:36:00,
2013-03-22 21:37:00,74.2,65.4,29.59,SE,133,3.0,17.0,74,0.00,,,0.00,Wunderground v.1.15,2013-03-23 02:37:00,
2013-03-22 21:39:00,74.2,65.4,29.59,SSE,157,3.0,17.0,74,0.00,,,0.00,Wunderground v.1.15,2013-03-23 02:39:00,
2013-03-22 21:42:00,74.0,65.6,29.59,ESE,121,3.0,6.0,75,0.00,,,0.00,Wunderground v.1.15,2013-03-23 02:42:00,
2013-03-22 21:44:00,73.9,65.5,29.59,SE,133,4.0,10.0,75,0.00,,,0.00,Wunderground v.1.15,2013-03-23 02:44:00,
2013-03-22 21:46:00,73.9,65.5,29.59,SE,133,4.0,10.0,75,0.00,,,0.00,Wunderground v.1.15,2013-03-23 02:46:00,
2013-03-22 21:48:00,73.9,65.5,29.59,East,90,5.0,10.0,75,0.00,,,0.00,Wunderground v.1.15,2013-03-23 02:48:00,
2013-03-22 21:49:00,73.7,65.3,29.59,SE,127,4.0,10.0,75,0.00,,,0.00,Wunderground v.1.15,2013-03-23 02:49:00,
2013-03-22 21:52:00,73.7,65.3,29.59,SE,141,4.0,12.0,75,0.00,,,0.00,Wunderground v.1.15,2013-03-23 02:52:00,
2013-03-22 21:53:00,73.7,65.3,29.59,SE,141,4.0,12.0,75,0.00,,,0.00,Wunderground v.1.15,2013-03-23 02:53:00,
2013-03-22 21:55:00,73.5,65.5,29.59,SE,141,4.0,12.0,76,0.00,,,0.00,Wunderground v.1.15,2013-03-23 02:55:00,
2013-03-22 21:56:00,73.5,65.5,29.59,SE,141,4.0,12.0,76,0.00,,,0.00,Wunderground v.1.15,2013-03-23 02:56:00,
2013-03-22 21:57:00,73.5,65.5,29.59,SE,140,4.0,12.0,76,0.00,,,0.00,Wunderground v.1.15,2013-03-23 02:57:00,
2013-03-22 22:01:00,73.3,65.3,29.59,SE,140,4.0,11.0,76,0.00,,,0.00,Wunderground v.1.15,2013-03-23 03:01:00,
2013-03-22 22:02:00,73.3,65.3,29.59,SE,140,4.0,11.0,76,0.00,,,0.00,Wunderground v.1.15,2013-03-23 03:02:00,
2013-03-22 22:04:00,73.3,65.3,29.59,ESE,106,3.0,11.0,76,0.00,,,0.00,Wunderground v.1.15,2013-03-23 03:04:00,
2013-03-22 22:08:00,73.2,65.6,29.59,ESE,112,3.0,11.0,77,0.00,,,0.00,Wunderground v.1.15,2013-03-23 03:08:00,
2013-03-22 22:09:00,73.2,65.6,29.59,ESE,110,3.0,11.0,77,0.00,,,0.00,Wunderground v.1.15,2013-03-23 03:09:00,
2013-03-22 22:11:00,73.0,65.4,29.59,ESE,113,3.0,4.0,77,0.00,,,0.00,Wunderground v.1.15,2013-03-23 03:11:00,
2013-03-22 22:12:00,73.0,65.4,29.59,ESE,113,3.0,9.0,77,0.00,,,0.00,Wunderground v.1.15,2013-03-23 03:12:00,
2013-03-22 22:14:00,73.0,65.4,29.59,ESE,113,3.0,9.0,77,0.00,,,0.00,Wunderground v.1.15,2013-03-23 03:14:00,
2013-03-22 22:19:00,72.7,65.4,29.61,ESE,109,3.0,9.0,78,0.00,,,0.00,Wunderground v.1.15,2013-03-23 03:19:00,
2013-03-22 22:24:00,72.5,65.2,29.61,ESE,110,3.0,11.0,78,0.00,,,0.00,Wunderground v.1.15,2013-03-23 03:24:00,
2013-03-22 22:25:00,72.5,65.2,29.61,ESE,110,3.0,11.0,78,0.00,,,0.00,Wunderground v.1.15,2013-03-23 03:25:00,
2013-03-22 22:27:00,72.5,65.2,29.61,ESE,110,3.0,11.0,78,0.00,,,0.00,Wunderground v.1.15,2013-03-23 03:27:00,
2013-03-22 22:28:00,72.3,65.1,29.61,ESE,112,3.0,11.0,78,0.00,,,0.00,Wunderground v.1.15,2013-03-23 03:28:00,
2013-03-22 22:31:00,72.3,65.4,29.61,East,93,3.0,6.0,79,0.00,,,0.00,Wunderground v.1.15,2013-03-23 03:31:00,
2013-03-22 22:33:00,72.3,65.4,29.61,ESE,114,3.0,7.0,79,0.00,,,0.00,Wunderground v.1.15,2013-03-23 03:33:00,
2013-03-22 22:36:00,72.3,65.4,29.61,ESE,109,2.0,7.0,79,0.00,,,0.00,Wunderground v.1.15,2013-03-23 03:36:00,
2013-03-22 22:37:00,72.3,65.4,29.61,East,100,2.0,7.0,79,0.00,,,0.00,Wunderground v.1.15,2013-03-23 03:37:00,
2013-03-22 22:39:00,72.3,65.4,29.61,East,97,2.0,7.0,79,0.00,,,0.00,Wunderground v.1.15,2013-03-23 03:39:00,
2013-03-22 22:43:00,72.3,65.4,29.61,East,97,3.0,7.0,79,0.00,,,0.00,Wunderground v.1.15,2013-03-23 03:43:00,
2013-03-22 22:45:00,72.3,65.4,29.61,ESE,102,3.0,7.0,79,0.00,,,0.00,Wunderground v.1.15,2013-03-23 03:45:00,
2013-03-22 22:49:00,72.1,65.6,29.61,East,88,4.0,7.0,80,0.00,,,0.00,Wunderground v.1.15,2013-03-23 03:49:00,
2013-03-22 22:52:00,72.1,65.6,29.61,SE,128,4.0,10.0,80,0.00,,,0.00,Wunderground v.1.15,2013-03-23 03:52:00,
2013-03-22 22:53:00,72.1,65.6,29.61,ESE,107,5.0,10.0,80,0.00,,,0.00,Wunderground v.1.15,2013-03-23 03:53:00,
2013-03-22 22:57:00,71.5,63.5,29.61,East,92,5.0,10.0,76,0.00,,,0.00,Wunderground v.1.15,2013-03-23 03:57:00,
2013-03-22 23:01:00,70.9,60.6,29.62,ESE,104,6.0,10.0,70,0.00,,,0.00,Wunderground v.1.15,2013-03-23 04:01:00,
2013-03-22 23:02:00,70.9,60.2,29.62,ENE,64,6.0,10.0,69,0.00,,,0.00,Wunderground v.1.15,2013-03-23 04:02:00,
2013-03-22 23:05:00,70.6,59.1,29.62,NE,45,6.0,10.0,67,0.00,,,0.00,Wunderground v.1.15,2013-03-23 04:05:00,
2013-03-22 23:06:00,70.6,59.1,29.62,East,79,5.0,10.0,67,0.00,,,0.00,Wunderground v.1.15,2013-03-23 04:06:00,
2013-03-22 23:07:00,70.6,59.1,29.62,ENE,62,5.0,10.0,67,0.00,,,0.00,Wunderground v.1.15,2013-03-23 04:07:00,
2013-03-22 23:11:00,70.3,58.4,29.62,East,88,4.0,10.0,66,0.00,,,0.00,Wunderground v.1.15,2013-03-23 04:11:00,
2013-03-22 23:12:00,70.1,58.2,29.62,East,82,5.0,16.0,66,0.00,,,0.00,Wunderground v.1.15,2013-03-23 04:12:00,
2013-03-22 23:13:00,69.9,58.0,29.62,East,86,5.0,16.0,66,0.00,,,0.00,Wunderground v.1.15,2013-03-23 04:13:00,
2013-03-22 23:14:00,69.9,58.0,29.62,East,86,5.0,16.0,66,0.00,,,0.00,Wunderground v.1.15,2013-03-23 04:14:00,
2013-03-22 23:17:00,69.8,57.9,29.62,East,92,5.0,16.0,66,0.00,,,0.00,Wunderground v.1.15,2013-03-23 04:17:00,
2013-03-22 23:19:00,69.6,57.7,29.62,East,88,5.0,16.0,66,0.00,,,0.00,Wunderground v.1.15,2013-03-23 04:19:00,
2013-03-22 23:22:00,69.4,57.5,29.62,ENE,78,4.0,6.0,66,0.00,,,0.00,Wunderground v.1.15,2013-03-23 04:22:00,
2013-03-22 23:24:00,69.3,57.5,29.62,East,99,3.0,16.0,66,0.00,,,0.00,Wunderground v.1.15,2013-03-23 04:24:00,
2013-03-22 23:28:00,69.1,57.7,29.62,East,97,3.0,16.0,67,0.00,,,0.00,Wunderground v.1.15,2013-03-23 04:28:00,
2013-03-22 23:29:00,68.9,57.5,29.62,East,97,3.0,16.0,67,0.00,,,0.00,Wunderground v.1.15,2013-03-23 04:29:00,
2013-03-22 23:31:00,68.9,57.5,29.62,East,90,3.0,16.0,67,0.00,,,0.00,Wunderground v.1.15,2013-03-23 04:31:00,
2013-03-22 23:35:00,68.8,57.4,29.62,NE,56,2.0,13.0,67,0.00,,,0.00,Wunderground v.1.15,2013-03-23 04:35:00,
2013-03-22 23:36:00,68.6,57.2,29.62,NE,56,2.0,13.0,67,0.00,,,0.00,Wunderground v.1.15,2013-03-23 04:36:00,
2013-03-22 23:38:00,68.4,56.6,29.62,ENE,78,3.0,13.0,66,0.00,,,0.00,Wunderground v.1.15,2013-03-23 04:38:00,
2013-03-22 23:41:00,68.1,56.3,29.62,NE,49,3.0,11.0,66,0.00,,,0.00,Wunderground v.1.15,2013-03-23 04:41:00,
2013-03-22 23:44:00,67.8,56.0,29.62,East,85,4.0,11.0,66,0.00,,,0.00,Wunderground v.1.15,2013-03-23 04:44:00,
2013-03-22 23:45:00,67.6,55.8,29.62,NE,54,4.0,11.0,66,0.00,,,0.00,Wunderground v.1.15,2013-03-23 04:45:00,
2013-03-22 23:47:00,67.4,55.6,29.62,NE,52,4.0,11.0,66,0.00,,,0.00,Wunderground v.1.15,2013-03-23 04:47:00,
2013-03-22 23:51:00,67.3,55.5,29.62,ENE,78,4.0,11.0,66,0.00,,,0.00,Wunderground v.1.15,2013-03-23 04:51:00,
2013-03-22 23:56:00,66.8,55.1,29.62,ENE,65,4.0,10.0,66,0.00,,,0.00,Wunderground v.1.15,2013-03-23 04:56:00,
2013-03-22 23:57:00,66.8,55.1,29.62,NNE,24,4.0,10.0,66,0.00,,,0.00,Wunderground v.1.15,2013-03-23 04:57:00,
2013-03-22 23:58:00,66.6,54.9,29.62,NE,37,4.0,10.0,66,0.00,,,0.00,Wunderground v.1.15,2013-03-23 04:58:00,